M I D A S
Marine Information and Data Acquisition System
Tripno 933 of the Zeeleeuw from 2005-08-23 06:48:49 to 2005-08-23 13:22:24
Back to CruiseResearch ActivitiesStationsMapUnderway DataData graphs

EquipmentUnitsComment
TimeDGPSUTC
LatitudeDGPSDM.mWGS84
LongitudeDGPSDM.mWGS84
TemperatureSBE03/SBE38deg celciusITS90
ConductivitySBE21S/mITS90
SalinitySBE21 Practical Salinity Units
ChlorophylAChelsea fluorimeterg/lCalibrated in Aceton
Missing or incorrect values are displayed as -999
Sea surface data collected by the RV Zeeleeuw from 2005-08-23 06:32:17 to 2005-08-23 13:21:20
                                                                                    Next 1000 lines
Time Latitude Longitude Temperature Conductivity Salinity ChlorophylA
2005-08-23 06:32:28 51°13.598 2°56.089 -999 0.007052 0.040273 0.803093
2005-08-23 06:32:32 51°13.598 2°56.087 -999 0.007052 0.040273 0.803093
2005-08-23 06:32:37 51°13.599 2°56.082 -999 0.007052 0.040273 0.803093
2005-08-23 06:32:43 51°13.601 2°56.075 -999 0.007052 0.040273 0.803093
2005-08-23 06:32:48 51°13.602 2°56.069 -999 0.007052 0.040273 0.803093
2005-08-23 06:32:53 51°13.604 2°56.061 -999 0.007052 0.040273 0.803093
2005-08-23 06:32:59 51°13.606 2°56.052 -999 0.007052 0.040273 0.803093
2005-08-23 06:33:03 51°13.608 2°56.045 -999 0.007052 0.040273 0.803093
2005-08-23 06:33:08 51°13.61 2°56.037 -999 0.007052 0.040273 0.803093
2005-08-23 06:33:13 51°13.612 2°56.029 -999 0.007052 0.040273 0.803093
2005-08-23 06:33:18 51°13.614 2°56.02 -999 0.007052 0.040274 0.803093
2005-08-23 06:33:23 51°13.616 2°56.011 -999 0.007052 0.040274 0.803093
2005-08-23 06:33:29 51°13.619 2°56.001 -999 0.007052 0.040274 0.803093
2005-08-23 06:33:34 51°13.621 2°55.993 -999 0.007052 0.040274 0.803093
2005-08-23 06:33:39 51°13.623 2°55.984 -999 0.007052 0.040274 0.803093
2005-08-23 06:33:43 51°13.626 2°55.976 -999 0.007052 0.040274 0.803093
2005-08-23 06:33:48 51°13.629 2°55.967 -999 0.007052 0.040273 0.803093
2005-08-23 06:33:53 51°13.631 2°55.958 -999 0.007052 0.040273 0.803093
2005-08-23 06:33:59 51°13.635 2°55.948 -999 0.007052 0.040273 0.803093
2005-08-23 06:34:03 51°13.638 2°55.94 -999 0.007052 0.040273 0.803093
2005-08-23 06:34:08 51°13.642 2°55.932 -999 0.007052 0.040272 0.803093
2005-08-23 06:34:13 51°13.646 2°55.923 -999 0.007052 0.040272 0.803093
2005-08-23 06:34:19 51°13.651 2°55.914 -999 0.007052 0.040272 0.803093
2005-08-23 06:34:23 51°13.655 2°55.906 -999 0.007052 0.040273 0.803093
2005-08-23 06:34:28 51°13.661 2°55.897 -999 0.007052 0.040273 0.803093
2005-08-23 06:34:33 51°13.666 2°55.887 -999 0.007052 0.040273 0.803093
2005-08-23 06:34:39 51°13.672 2°55.877 -999 0.007052 0.040273 0.803093
2005-08-23 06:34:43 51°13.676 2°55.868 -999 0.007052 0.040273 0.803093
2005-08-23 06:34:48 51°13.682 2°55.858 -999 0.007052 0.040273 0.803093
2005-08-23 06:34:53 51°13.686 2°55.848 -999 0.007052 0.040273 0.803093
2005-08-23 06:34:59 51°13.691 2°55.838 -999 0.007052 0.040273 0.803093
2005-08-23 06:35:03 51°13.695 2°55.829 -999 0.007052 0.040273 0.803093
2005-08-23 06:35:08 51°13.698 2°55.82 -999 0.007052 0.040273 0.803093
2005-08-23 06:35:13 51°13.702 2°55.811 -999 0.007052 0.040273 0.803093
2005-08-23 06:35:19 51°13.706 2°55.801 -999 0.007052 0.040273 0.803093
2005-08-23 06:35:24 51°13.708 2°55.792 -999 0.007052 0.040274 0.803093
2005-08-23 06:35:28 51°13.711 2°55.784 -999 0.007052 0.040274 0.803093
2005-08-23 06:35:33 51°13.713 2°55.775 -999 0.007052 0.040274 0.803093
2005-08-23 06:35:38 51°13.716 2°55.766 -999 0.007052 0.040274 0.803093
2005-08-23 06:35:43 51°13.718 2°55.757 -999 0.007052 0.040274 0.803093
2005-08-23 06:35:48 51°13.72 2°55.749 -999 0.007052 0.040274 0.803093
2005-08-23 06:35:53 51°13.722 2°55.743 -999 0.007052 0.040274 0.803093
2005-08-23 06:35:59 51°13.723 2°55.74 -999 0.007052 0.040274 0.803093
2005-08-23 06:36:03 51°13.723 2°55.739 -999 0.007052 0.040274 0.803093
2005-08-23 06:36:09 51°13.723 2°55.742 -999 0.007052 0.040275 0.803093
2005-08-23 06:36:14 51°13.723 2°55.746 -999 0.007052 0.040275 0.803093
2005-08-23 06:36:19 51°13.724 2°55.751 -999 0.007052 0.040275 0.803093
2005-08-23 06:36:23 51°13.725 2°55.754 -999 0.007052 0.040275 0.803093
2005-08-23 06:36:28 51°13.726 2°55.757 -999 0.007052 0.040276 0.803093
2005-08-23 06:36:32 51°13.726 2°55.757 -999 0.007052 0.040276 0.803093
2005-08-23 06:36:38 51°13.725 2°55.756 -999 0.007052 0.040276 0.803093
2005-08-23 06:36:43 51°13.725 2°55.754 -999 0.007052 0.040276 0.803093
2005-08-23 06:36:47 51°13.723 2°55.751 -999 0.007052 0.040276 0.803093
2005-08-23 06:36:53 51°13.721 2°55.745 -999 0.007052 0.040276 0.803093
2005-08-23 06:36:59 51°13.719 2°55.739 -999 0.007052 0.040276 0.803093
2005-08-23 06:37:03 51°13.717 2°55.734 -999 0.007052 0.040276 0.803093
2005-08-23 06:37:08 51°13.715 2°55.728 -999 0.007052 0.040276 0.769383
2005-08-23 06:37:14 51°13.713 2°55.722 -999 0.007052 0.040276 0.769383
2005-08-23 06:37:18 51°13.712 2°55.719 -999 0.007052 0.040277 0.803093
2005-08-23 06:37:23 51°13.711 2°55.717 -999 0.007052 0.040277 0.803093
2005-08-23 06:37:28 51°13.711 2°55.716 -999 0.007052 0.040277 0.803093
2005-08-23 06:37:33 51°13.71 2°55.716 -999 0.007052 0.040277 0.803093
2005-08-23 06:37:39 51°13.711 2°55.717 -999 0.007052 0.040277 0.803093
2005-08-23 06:37:43 51°13.712 2°55.718 -999 0.007052 0.040277 0.803093
2005-08-23 06:37:48 51°13.714 2°55.72 -999 0.007052 0.040277 0.803093
2005-08-23 06:37:53 51°13.716 2°55.722 -999 0.007052 0.040277 0.803093
2005-08-23 06:37:59 51°13.72 2°55.725 -999 0.007052 0.040278 0.803093
2005-08-23 06:38:03 51°13.724 2°55.726 -999 0.007052 0.040278 0.803093
2005-08-23 06:38:07 51°13.727 2°55.727 -999 0.007052 0.040278 0.803093
2005-08-23 06:38:13 51°13.733 2°55.727 -999 0.007052 0.040278 0.803093
2005-08-23 06:38:18 51°13.738 2°55.725 -999 0.007052 0.040278 0.803093
2005-08-23 06:38:23 51°13.743 2°55.722 -999 0.007052 0.040279 0.803093
2005-08-23 06:38:28 51°13.748 2°55.717 -999 0.007052 0.040279 0.803093
2005-08-23 06:38:33 51°13.753 2°55.713 -999 0.007052 0.04028 0.803093
2005-08-23 06:38:38 51°13.758 2°55.707 -999 0.007052 0.04028 0.803093
2005-08-23 06:38:43 51°13.762 2°55.702 -999 0.007052 0.04028 0.803093
2005-08-23 06:38:47 51°13.767 2°55.697 -999 0.007052 0.04028 0.803093
2005-08-23 06:38:53 51°13.773 2°55.69 -999 0.007052 0.04028 0.803093
2005-08-23 06:38:57 51°13.777 2°55.686 -999 0.007052 0.04028 0.803093
2005-08-23 06:39:03 51°13.783 2°55.678 -999 0.007052 0.040281 0.803093
2005-08-23 06:39:07 51°13.789 2°55.672 -999 0.007052 0.040281 0.803093
2005-08-23 06:39:12 51°13.794 2°55.667 -999 0.007052 0.040281 0.803093
2005-08-23 06:39:18 51°13.801 2°55.659 -999 0.007052 0.040281 0.803093
2005-08-23 06:39:23 51°13.807 2°55.653 -999 0.007052 0.040281 0.803093
2005-08-23 06:39:28 51°13.815 2°55.645 -999 0.007052 0.040282 0.803093
2005-08-23 06:39:32 51°13.821 2°55.64 -999 0.007052 0.040282 0.803093
2005-08-23 06:39:37 51°13.83 2°55.632 -999 0.007052 0.040282 0.803093
2005-08-23 06:39:42 51°13.839 2°55.625 -999 0.007052 0.040282 0.803093
2005-08-23 06:39:47 51°13.847 2°55.619 -999 0.007052 0.040282 0.803093
2005-08-23 06:39:52 51°13.858 2°55.611 -999 0.007052 0.040283 0.803093
2005-08-23 06:39:55 51°13.864 2°55.606 -999 0.007052 0.040283 0.803093
2005-08-23 06:40:03 51°13.879 2°55.594 -999 0.007052 0.040283 0.803093
2005-08-23 06:40:08 51°13.891 2°55.585 -999 0.007052 0.040284 0.803093
2005-08-23 06:40:11 51°13.898 2°55.581 -999 0.007052 0.040284 0.803093
2005-08-23 06:40:18 51°13.913 2°55.569 -999 0.007052 0.040284 0.803093
2005-08-23 06:40:23 51°13.923 2°55.561 -999 0.007052 0.040284 0.769383
2005-08-23 06:40:27 51°13.932 2°55.555 -999 0.007052 0.040285 0.803093
2005-08-23 06:40:33 51°13.947 2°55.545 -999 0.007052 0.040285 0.803093
2005-08-23 06:40:38 51°13.958 2°55.536 -999 0.007052 0.040285 0.803093
2005-08-23 06:40:43 51°13.97 2°55.528 -999 0.007052 0.040285 0.803093
2005-08-23 06:40:47 51°13.98 2°55.521 -999 0.007052 0.040285 0.803093
2005-08-23 06:40:52 51°13.992 2°55.512 -999 0.007052 0.040286 0.803093
2005-08-23 06:40:58 51°14.006 2°55.502 -999 0.007052 0.040286 0.803093
2005-08-23 06:41:03 51°14.018 2°55.494 -999 0.007052 0.040286 0.803093
2005-08-23 06:41:08 51°14.031 2°55.484 -999 0.007052 0.040286 0.803093
2005-08-23 06:41:13 51°14.042 2°55.476 -999 0.007052 0.040286 0.803093
2005-08-23 06:41:18 51°14.054 2°55.469 -999 0.007052 0.040287 0.803093
2005-08-23 06:41:23 51°14.066 2°55.46 -999 0.007052 0.040287 0.803093
2005-08-23 06:41:27 51°14.076 2°55.454 -999 0.007052 0.040287 0.803093
2005-08-23 06:41:32 51°14.089 2°55.445 -999 0.007052 0.040287 0.803093
2005-08-23 06:41:37 51°14.101 2°55.436 -999 0.007052 0.040288 0.803093
2005-08-23 06:41:42 51°14.113 2°55.428 -999 0.007052 0.040288 0.803093
2005-08-23 06:41:47 51°14.126 2°55.418 -999 0.007052 0.040288 0.803093
2005-08-23 06:41:53 51°14.14 2°55.407 -999 0.007052 0.040288 0.803093
2005-08-23 06:41:57 51°14.151 2°55.398 -999 0.007052 0.040289 0.803093
2005-08-23 06:42:02 51°14.163 2°55.387 -999 0.007052 0.040289 0.803093
2005-08-23 06:42:07 51°14.175 2°55.374 -999 0.007052 0.040289 0.803093
2005-08-23 06:42:11 51°14.184 2°55.365 -999 0.007052 0.040289 0.803093
2005-08-23 06:42:18 51°14.199 2°55.347 -999 0.007052 0.040289 0.803093
2005-08-23 06:42:23 51°14.21 2°55.334 -999 0.007052 0.04029 0.803093
2005-08-23 06:42:27 51°14.219 2°55.322 -999 0.007052 0.04029 0.803093
2005-08-23 06:42:33 51°14.234 2°55.303 -999 0.007052 0.04029 0.803093
2005-08-23 06:42:35 51°14.236 2°55.299 -999 0.007052 0.04029 0.803093
2005-08-23 06:42:42 51°14.252 2°55.274 -999 0.007052 0.04029 0.803093
2005-08-23 06:42:48 51°14.263 2°55.254 -999 0.007052 0.04029 0.803093
2005-08-23 06:42:52 51°14.271 2°55.24 -999 0.007052 0.040291 0.803093
2005-08-23 06:42:58 51°14.282 2°55.218 -999 0.007052 0.040291 0.803093
2005-08-23 06:43:03 51°14.29 2°55.201 -999 0.007052 0.040291 0.803093
2005-08-23 06:43:07 51°14.298 2°55.184 -999 0.007052 0.040291 0.803093
2005-08-23 06:43:12 51°14.307 2°55.164 -999 0.007052 0.040291 0.803093
2005-08-23 06:43:18 51°14.318 2°55.143 -999 0.007052 0.040291 0.803093
2005-08-23 06:43:23 51°14.327 2°55.124 -999 0.007052 0.040291 0.803093
2005-08-23 06:43:27 51°14.336 2°55.106 -999 0.007052 0.040292 0.803093
2005-08-23 06:43:33 51°14.348 2°55.084 -999 0.007052 0.040292 0.803093
2005-08-23 06:43:38 51°14.359 2°55.064 -999 0.007052 0.040292 0.803093
2005-08-23 06:43:43 51°14.37 2°55.047 -999 0.007052 0.040292 0.803093
2005-08-23 06:43:47 51°14.38 2°55.031 -999 0.007052 0.040292 0.803093
2005-08-23 06:43:51 51°14.39 2°55.017 -999 0.007052 0.040292 0.803093
2005-08-23 06:43:55 51°14.399 2°55.002 -999 0.007052 0.040292 0.803093
2005-08-23 06:44:03 51°14.417 2°54.975 -999 0.007052 0.040293 0.803093
2005-08-23 06:44:07 51°14.428 2°54.958 -999 0.007052 0.040293 0.803093
2005-08-23 06:44:12 51°14.441 2°54.941 -999 0.007052 0.040293 0.803093
2005-08-23 06:44:18 51°14.456 2°54.922 -999 0.007052 0.040293 0.803093
2005-08-23 06:44:23 51°14.469 2°54.906 -999 0.007052 0.040293 0.803093
2005-08-23 06:44:28 51°14.483 2°54.888 -999 0.007052 0.040293 0.803093
2005-08-23 06:44:32 51°14.496 2°54.873 -999 0.007052 0.040294 0.803093
2005-08-23 06:44:36 51°14.507 2°54.86 -999 0.007052 0.040294 0.803093
2005-08-23 06:44:43 51°14.525 2°54.839 -999 0.007052 0.040294 0.803093
2005-08-23 06:44:48 51°14.54 2°54.822 -999 0.007052 0.040294 0.803093
2005-08-23 06:44:52 51°14.553 2°54.809 -999 0.007052 0.040294 0.803093
2005-08-23 06:44:57 51°14.568 2°54.793 -999 0.007052 0.040294 0.803093
2005-08-23 06:45:03 51°14.583 2°54.777 -999 0.007052 0.040295 0.803093
2005-08-23 06:45:07 51°14.598 2°54.763 -999 0.007052 0.040295 0.803093
2005-08-23 06:45:12 51°14.613 2°54.748 -999 0.007052 0.040295 0.803093
2005-08-23 06:45:17 51°14.628 2°54.735 -999 0.007052 0.040295 0.803093
2005-08-23 06:45:23 51°14.645 2°54.719 -999 0.007052 0.040295 0.803093
2005-08-23 06:45:27 51°14.657 2°54.706 -999 0.007052 0.040295 0.803093
2005-08-23 06:45:33 51°14.675 2°54.688 -999 0.007052 0.040295 0.803093
2005-08-23 06:45:38 51°14.69 2°54.673 -999 0.007052 0.040295 0.803093
2005-08-23 06:45:43 51°14.705 2°54.658 -999 0.007052 0.040295 0.803093
2005-08-23 06:45:48 51°14.72 2°54.643 -999 0.007052 0.040296 0.803093
2005-08-23 06:45:53 51°14.735 2°54.627 -999 0.007052 0.040296 0.803093
2005-08-23 06:45:58 51°14.752 2°54.61 -999 0.007052 0.040296 0.803093
2005-08-23 06:46:03 51°14.765 2°54.596 -999 0.007052 0.040296 0.803093
2005-08-23 06:46:07 51°14.779 2°54.582 -999 0.007052 0.040296 0.803093
2005-08-23 06:46:13 51°14.796 2°54.565 -999 0.007052 0.040296 0.803093
2005-08-23 06:46:17 51°14.809 2°54.552 -999 0.007052 0.040297 0.803093
2005-08-23 06:46:23 51°14.825 2°54.535 -999 0.007052 0.040297 0.803093
2005-08-23 06:46:27 51°14.838 2°54.522 -999 0.007052 0.040297 0.803093
2005-08-23 06:46:33 51°14.856 2°54.505 -999 0.007052 0.040297 0.803093
2005-08-23 06:46:37 51°14.87 2°54.492 -999 0.007052 0.040297 0.803093
2005-08-23 06:46:43 51°14.887 2°54.476 -999 0.007052 0.040297 0.803093
2005-08-23 06:46:47 51°14.899 2°54.464 -999 0.007052 0.040297 0.803093
2005-08-23 06:46:51 51°14.911 2°54.453 -999 0.007052 0.040297 0.803093
2005-08-23 06:46:58 51°14.933 2°54.43 -999 0.007052 0.040298 0.803093
2005-08-23 06:47:03 51°14.946 2°54.417 -999 0.007052 0.040298 0.803093
2005-08-23 06:47:08 51°14.962 2°54.401 -999 0.007052 0.040298 0.803093
2005-08-23 06:47:11 51°14.972 2°54.391 -999 0.007052 0.040298 0.803093
2005-08-23 06:47:17 51°14.991 2°54.373 -999 0.007052 0.040298 0.803093
2005-08-23 06:47:22 51°15.006 2°54.358 -999 0.007052 0.040298 0.803093
2005-08-23 06:47:27 51°15.021 2°54.343 -999 0.007052 0.040299 0.803093
2005-08-23 06:47:33 51°15.039 2°54.325 -999 0.007052 0.040299 0.803093
2005-08-23 06:47:36 51°15.048 2°54.316 -999 0.007052 0.040299 0.803093
2005-08-23 06:47:43 51°15.068 2°54.296 -999 0.007052 0.040299 0.803093
2005-08-23 06:47:48 51°15.084 2°54.281 -999 0.007052 0.040299 0.803093
2005-08-23 06:47:53 51°15.099 2°54.266 -999 0.007052 0.040299 0.803093
2005-08-23 06:47:58 51°15.114 2°54.252 -999 0.006949 0.039809 0.803093
2005-08-23 06:48:03 51°15.13 2°54.237 -999 0.007052 0.0403 0.803093
2005-08-23 06:48:07 51°15.144 2°54.225 -999 0.007052 0.0403 0.803093
2005-08-23 06:48:11 51°15.154 2°54.215 -999 0.007052 0.0403 0.803093
2005-08-23 06:48:15 51°15.167 2°54.202 -999 0.007052 0.0403 0.803093
2005-08-23 06:48:23 51°15.191 2°54.178 -999 0.007052 0.040303 0.803093
2005-08-23 06:48:27 51°15.205 2°54.164 -999 0.007052 0.040308 0.803093
2005-08-23 06:48:32 51°15.22 2°54.149 -999 0.007052 0.040309 0.803093
2005-08-23 06:48:37 51°15.236 2°54.134 -999 0.007052 0.040318 0.836802
2005-08-23 06:48:43 51°15.252 2°54.118 -999 0.007052 0.040318 0.836802
2005-08-23 06:48:47 51°15.265 2°54.106 -999 0.006949 0.039847 0.803093
2005-08-23 06:48:51 51°15.279 2°54.092 -999 3.347146 22.606351 5.387571
2005-08-23 06:48:58 51°15.299 2°54.071 -999 3.856251 26.343062 4.443708
2005-08-23 06:49:03 51°15.316 2°54.054 -999 3.821647 26.28891 0.432289
2005-08-23 06:49:07 51°15.328 2°54.042 -999 3.914812 27.368131 0.465999
2005-08-23 06:49:12 51°15.343 2°54.026 -999 3.914812 27.368131 0.465999
2005-08-23 06:49:17 51°15.359 2°54.01 -999 4.046453 28.768411 0.095195
2005-08-23 06:49:23 51°15.375 2°53.994 -999 4.13956 29.849247 -0.107061
2005-08-23 06:49:27 51°15.387 2°53.981 -999 4.17679 30.390712 -0.14077
2005-08-23 06:49:32 51°15.404 2°53.964 -999 4.20251 30.731355 -0.17448
2005-08-23 06:49:37 51°15.419 2°53.947 -999 4.2078 30.878766 -0.208189
2005-08-23 06:49:43 51°15.435 2°53.929 -999 4.2078 30.878766 -0.208189
2005-08-23 06:49:47 51°15.448 2°53.915 -999 4.233936 31.167362 -0.241899
2005-08-23 06:49:53 51°15.465 2°53.897 -999 4.243374 31.292782 -0.275608
2005-08-23 06:49:58 51°15.48 2°53.882 -999 4.240056 31.296271 -0.309317
2005-08-23 06:50:03 51°15.495 2°53.866 -999 4.244412 31.360677 -0.343027
2005-08-23 06:50:07 51°15.507 2°53.854 -999 4.249598 31.418937 -0.343027
2005-08-23 06:50:12 51°15.524 2°53.837 -999 4.249598 31.418937 -0.343027
2005-08-23 06:50:18 51°15.542 2°53.818 -999 4.250947 31.439611 -0.343027
2005-08-23 06:50:23 51°15.556 2°53.804 -999 4.243583 31.387178 -0.343027
2005-08-23 06:50:27 51°15.57 2°53.789 -999 4.237672 31.340172 -0.376736
2005-08-23 06:50:33 51°15.586 2°53.772 -999 4.251258 31.464883 -0.410446
2005-08-23 06:50:36 51°15.596 2°53.761 -999 4.245451 31.431843 -0.444155
2005-08-23 06:50:43 51°15.616 2°53.74 -999 4.245451 31.431843 -0.444155
2005-08-23 06:50:48 51°15.63 2°53.726 -999 4.248147 31.466691 -0.477864
2005-08-23 06:50:52 51°15.644 2°53.711 -999 4.247525 31.47412 -0.477864
2005-08-23 06:50:57 51°15.658 2°53.697 -999 4.251259 31.512799 -0.511574
2005-08-23 06:51:03 51°15.675 2°53.679 -999 4.248459 31.495028 -0.511574
2005-08-23 06:51:07 51°15.689 2°53.665 -999 4.241096 31.436504 -0.545283
2005-08-23 06:51:11 51°15.701 2°53.652 -999 4.241096 31.436504 -0.545283
2005-08-23 06:51:18 51°15.721 2°53.633 -999 4.240785 31.439318 -0.545283
2005-08-23 06:51:23 51°15.736 2°53.617 -999 4.212784 31.211926 -0.545283
2005-08-23 06:51:27 51°15.748 2°53.605 -999 4.234044 31.390725 -0.545283
2005-08-23 06:51:33 51°15.766 2°53.586 -999 4.215687 31.241881 -0.578993
2005-08-23 06:51:37 51°15.779 2°53.572 -999 4.241718 31.457228 -0.578993
2005-08-23 06:51:43 51°15.796 2°53.555 -999 4.241718 31.457228 -0.578993
2005-08-23 06:51:47 51°15.807 2°53.543 -999 4.243585 31.47268 -0.545283
2005-08-23 06:51:53 51°15.826 2°53.524 -999 4.227095 31.337422 -0.545283
2005-08-23 06:51:57 51°15.84 2°53.51 -999 4.23954 31.441598 -0.511574
2005-08-23 06:52:03 51°15.856 2°53.494 -999 4.229377 31.36048 -0.511574
2005-08-23 06:52:07 51°15.87 2°53.48 -999 4.239437 31.444335 -0.511574
2005-08-23 06:52:12 51°15.885 2°53.464 -999 4.239437 31.444335 -0.511574
2005-08-23 06:52:15 51°15.895 2°53.455 -999 4.235807 31.41429 -0.511574
2005-08-23 06:52:23 51°15.917 2°53.432 -999 4.229999 31.364434 -0.511574
2005-08-23 06:52:27 51°15.929 2°53.419 -999 4.227095 31.342797 -0.511574
2005-08-23 06:52:32 51°15.946 2°53.403 -999 4.222117 31.30579 -0.477864
2005-08-23 06:52:38 51°15.962 2°53.385 -999 4.225851 31.340265 -0.511574
2005-08-23 06:52:42 51°15.976 2°53.371 -999 4.225851 31.340265 -0.511574
2005-08-23 06:52:47 51°15.99 2°53.357 -999 4.233733 31.409096 -0.477864
2005-08-23 06:52:52 51°16.006 2°53.341 -999 4.215792 31.262395 -0.477864
2005-08-23 06:52:57 51°16.019 2°53.328 -999 4.221599 31.308064 -0.444155
2005-08-23 06:53:03 51°16.037 2°53.31 -999 4.231244 31.387891 -0.444155
2005-08-23 06:53:07 51°16.051 2°53.296 -999 4.228444 31.363517 -0.444155
2005-08-23 06:53:11 51°16.063 2°53.284 -999 4.228444 31.363517 -0.444155
2005-08-23 06:53:18 51°16.082 2°53.264 -999 4.237674 31.441727 -0.444155
2005-08-23 06:53:23 51°16.098 2°53.248 -999 4.230518 31.381882 -0.410446
2005-08-23 06:53:27 51°16.11 2°53.236 -999 4.236637 31.433139 -0.410446
2005-08-23 06:53:32 51°16.127 2°53.22 -999 4.222014 31.312691 -0.410446
2005-08-23 06:53:37 51°16.142 2°53.204 -999 4.23757 31.443266 -0.410446
2005-08-23 06:53:43 51°16.158 2°53.188 -999 4.23757 31.443266 -0.410446
2005-08-23 06:53:47 51°16.171 2°53.175 -999 4.218488 31.288882 -0.376736
2005-08-23 06:53:53 51°16.189 2°53.157 -999 4.241822 31.483284 -0.376736
2005-08-23 06:53:57 51°16.203 2°53.143 -999 4.240059 31.466279 -0.343027
2005-08-23 06:54:03 51°16.22 2°53.127 -999 4.242341 31.483377 -0.343027
2005-08-23 06:54:08 51°16.235 2°53.113 -999 4.239644 31.461043 -0.343027
2005-08-23 06:54:12 51°16.249 2°53.1 -999 4.239644 31.461043 -0.343027
2005-08-23 06:54:17 51°16.265 2°53.085 -999 4.241407 31.473845 -0.343027
2005-08-23 06:54:23 51°16.281 2°53.07 -999 4.241718 31.474021 -0.309317
2005-08-23 06:54:28 51°16.298 2°53.055 -999 4.241926 31.47814 -0.275608
2005-08-23 06:54:33 51°16.313 2°53.041 -999 4.237259 31.441889 -0.309317
2005-08-23 06:54:38 51°16.328 2°53.027 -999 4.245348 31.508891 -0.309317
2005-08-23 06:54:43 51°16.343 2°53.013 -999 4.245348 31.508891 -0.309317
2005-08-23 06:54:47 51°16.356 2°53.002 -999 4.247423 31.527277 -0.343027
2005-08-23 06:54:52 51°16.373 2°52.986 -999 4.247008 31.525042 -0.376736
2005-08-23 06:54:57 51°16.388 2°52.972 -999 4.249082 31.541627 -0.376736
2005-08-23 06:55:03 51°16.406 2°52.956 -999 4.25126 31.560275 -0.410446
2005-08-23 06:55:08 51°16.421 2°52.941 -999 4.249082 31.543431 -0.410446
2005-08-23 06:55:11 51°16.432 2°52.931 -999 4.249082 31.543431 -0.410446
2005-08-23 06:55:17 51°16.45 2°52.914 -999 4.251571 31.564659 -0.444155
2005-08-23 06:55:23 51°16.467 2°52.897 -999 4.253646 31.581247 -0.444155
2005-08-23 06:55:27 51°16.48 2°52.885 -999 4.251986 31.568097 -0.477864
2005-08-23 06:55:33 51°16.498 2°52.868 -999 4.25489 31.592767 -0.511574
2005-08-23 06:55:38 51°16.514 2°52.853 -999 4.255098 31.594486 -0.511574
2005-08-23 06:55:43 51°16.529 2°52.838 -999 4.255098 31.594486 -0.511574
2005-08-23 06:55:47 51°16.541 2°52.827 -999 4.245867 31.518596 -0.511574
2005-08-23 06:55:51 51°16.554 2°52.815 -999 4.259142 31.629824 -0.511574
2005-08-23 06:55:58 51°16.578 2°52.796 -999 4.256861 31.612115 -0.511574
2005-08-23 06:56:03 51°16.592 2°52.784 -999 4.254475 31.592342 -0.511574
2005-08-23 06:56:08 51°16.61 2°52.77 -999 4.26215 31.655364 -0.545283
2005-08-23 06:56:13 51°16.625 2°52.758 -999 4.26215 31.655364 -0.545283
2005-08-23 06:56:16 51°16.636 2°52.749 -999 4.264536 31.674539 -0.511574
2005-08-23 06:56:23 51°16.656 2°52.732 -999 4.267336 31.69897 -0.511574
2005-08-23 06:56:27 51°16.669 2°52.721 -999 4.26578 31.686068 -0.511574
2005-08-23 06:56:33 51°16.689 2°52.704 -999 4.267025 31.698204 -0.511574
2005-08-23 06:56:38 51°16.703 2°52.692 -999 4.264847 31.680745 -0.511574
2005-08-23 06:56:43 51°16.72 2°52.678 -999 4.264847 31.680745 -0.511574
2005-08-23 06:56:47 51°16.732 2°52.667 -999 4.261321 31.651504 -0.511574
2005-08-23 06:56:52 51°16.75 2°52.653 -999 4.267544 31.703714 -0.545283
2005-08-23 06:56:57 51°16.765 2°52.64 -999 4.267544 31.704924 -0.545283
2005-08-23 06:57:03 51°16.783 2°52.626 -999 4.268892 31.716713 -0.545283
2005-08-23 06:57:07 51°16.796 2°52.615 -999 4.24763 31.540425 -0.545283
2005-08-23 06:57:12 51°16.814 2°52.603 -999 4.24763 31.540425 -0.545283
2005-08-23 06:57:17 51°16.83 2°52.591 -999 4.268062 31.709831 -0.545283
2005-08-23 06:57:23 51°16.848 2°52.579 -999 4.27107 31.734175 -0.545283
2005-08-23 06:57:27 51°16.863 2°52.569 -999 4.274078 31.759127 -0.578993
2005-08-23 06:57:32 51°16.879 2°52.559 -999 4.273767 31.757758 -0.545283
2005-08-23 06:57:37 51°16.896 2°52.549 -999 4.277501 31.789952 -0.578993
2005-08-23 06:57:43 51°16.915 2°52.537 -999 4.277501 31.789952 -0.578993
2005-08-23 06:57:48 51°16.932 2°52.526 -999 4.262565 31.665449 -0.612702
2005-08-23 06:57:53 51°16.95 2°52.515 -999 4.276256 31.779624 -0.578993
2005-08-23 06:57:58 51°16.965 2°52.505 -999 4.272522 31.751068 -0.612702
2005-08-23 06:58:03 51°16.983 2°52.494 -999 4.277189 31.792224 -0.612702
2005-08-23 06:58:07 51°16.997 2°52.485 -999 4.278849 31.807211 -0.646411
2005-08-23 06:58:13 51°17.015 2°52.474 -999 4.278849 31.807211 -0.646411
2005-08-23 06:58:18 51°17.033 2°52.462 -999 4.2747 31.774598 -0.646411
2005-08-23 06:58:23 51°17.047 2°52.453 -999 4.287147 31.879745 -0.646411
2005-08-23 06:58:28 51°17.065 2°52.442 -999 4.288703 31.893882 -0.646411
2005-08-23 06:58:32 51°17.079 2°52.433 -999 4.291607 31.918002 -0.646411
2005-08-23 06:58:38 51°17.098 2°52.421 -999 4.28445 31.860394 -0.646411
2005-08-23 06:58:43 51°17.115 2°52.411 -999 4.28445 31.860394 -0.646411
2005-08-23 06:58:48 51°17.131 2°52.401 -999 4.288288 31.894091 -0.612702
2005-08-23 06:58:53 51°17.148 2°52.39 -999 4.296171 31.960792 -0.612702
2005-08-23 06:58:56 51°17.16 2°52.382 -999 4.29866 31.983308 -0.612702
2005-08-23 06:59:02 51°17.18 2°52.37 -999 4.299801 31.994011 -0.612702
2005-08-23 06:59:07 51°17.197 2°52.362 -999 4.302291 32.015311 -0.612702
2005-08-23 06:59:12 51°17.214 2°52.357 -999 4.302291 32.015311 -0.612702
2005-08-23 06:59:18 51°17.234 2°52.352 -999 4.300735 32.001157 -0.612702
2005-08-23 06:59:23 51°17.251 2°52.349 -999 4.302602 32.015451 -0.612702
2005-08-23 06:59:27 51°17.264 2°52.347 -999 4.301772 32.006721 -0.612702
2005-08-23 06:59:31 51°17.278 2°52.346 -999 4.307373 32.048986 -0.612702
2005-08-23 06:59:36 51°17.298 2°52.344 -999 4.296585 31.955085 -0.612702
2005-08-23 06:59:43 51°17.32 2°52.343 -999 4.296585 31.955085 -0.612702
2005-08-23 06:59:47 51°17.336 2°52.342 -999 4.305609 32.024548 -0.612702
2005-08-23 06:59:51 51°17.35 2°52.341 -999 4.310588 32.063465 -0.612702
2005-08-23 06:59:58 51°17.374 2°52.339 -999 4.314115 32.09093 -0.612702
2005-08-23 07:00:03 51°17.389 2°52.339 -999 4.313907 32.088594 -0.612702
2005-08-23 07:00:07 51°17.405 2°52.338 -999 4.312559 32.076166 -0.612702
2005-08-23 07:00:11 51°17.419 2°52.337 -999 4.312559 32.076166 -0.612702
2005-08-23 07:00:18 51°17.443 2°52.335 -999 4.318057 32.120618 -0.612702
2005-08-23 07:00:23 51°17.459 2°52.333 -999 4.31121 32.062516 -0.612702
2005-08-23 07:00:28 51°17.476 2°52.333 -999 4.30395 32.000988 -0.612702
2005-08-23 07:00:32 51°17.492 2°52.332 -999 4.308306 32.037169 -0.612702
2005-08-23 07:00:38 51°17.511 2°52.331 -999 4.31733 32.111521 -0.612702
2005-08-23 07:00:43 51°17.529 2°52.33 -999 4.31733 32.111521 -0.612702
2005-08-23 07:00:48 51°17.545 2°52.33 -999 4.312351 32.068934 -0.578993
2005-08-23 07:00:53 51°17.563 2°52.33 -999 4.312455 32.06796 -0.578993
2005-08-23 07:00:56 51°17.574 2°52.33 -999 4.315048 32.088276 -0.578993
2005-08-23 07:01:02 51°17.595 2°52.33 -999 4.311625 32.059845 -0.578993
2005-08-23 07:01:07 51°17.612 2°52.33 -999 4.31453 32.082744 -0.578993
2005-08-23 07:01:13 51°17.631 2°52.33 -999 4.31453 32.082744 -0.578993
2005-08-23 07:01:18 51°17.65 2°52.332 -999 4.314322 32.080408 -0.578993
2005-08-23 07:01:22 51°17.664 2°52.332 -999 4.310484 32.047923 -0.578993
2005-08-23 07:01:27 51°17.681 2°52.334 -999 4.30312 31.986774 -0.578993
2005-08-23 07:01:31 51°17.694 2°52.334 -999 4.308513 32.031557 -0.578993
2005-08-23 07:01:38 51°17.718 2°52.338 -999 4.306854 32.017777 -0.578993
2005-08-23 07:01:43 51°17.734 2°52.341 -999 4.306854 32.017777 -0.578993
2005-08-23 07:01:47 51°17.747 2°52.344 -999 4.301356 31.971525 -0.578993
2005-08-23 07:01:53 51°17.767 2°52.349 -999 4.306024 32.008444 -0.578993
2005-08-23 07:01:58 51°17.783 2°52.353 -999 4.302497 31.979777 -0.578993
2005-08-23 07:02:03 51°17.8 2°52.359 -999 4.304261 31.995636 -0.578993
2005-08-23 07:02:08 51°17.817 2°52.364 -999 4.303949 31.994273 -0.578993
2005-08-23 07:02:12 51°17.83 2°52.369 -999 4.303949 31.994273 -0.578993
2005-08-23 07:02:16 51°17.844 2°52.374 -999 4.301564 31.974467 -0.578993
2005-08-23 07:02:23 51°17.866 2°52.383 -999 4.306543 32.016414 -0.578993
2005-08-23 07:02:27 51°17.881 2°52.39 -999 4.273663 31.743571 -0.578993
2005-08-23 07:02:32 51°17.897 2°52.397 -999 4.285176 31.84089 -0.612702
2005-08-23 07:02:37 51°17.913 2°52.406 -999 4.294614 31.921045 -0.612702
2005-08-23 07:02:43 51°17.931 2°52.414 -999 4.294614 31.921045 -0.612702
2005-08-23 07:02:48 51°17.947 2°52.424 -999 4.269721 31.715728 -0.612702
2005-08-23 07:02:53 51°17.962 2°52.435 -999 4.294303 31.920898 -0.612702
2005-08-23 07:02:58 51°17.979 2°52.447 -999 4.290673 31.891373 -0.612702
2005-08-23 07:03:03 51°17.993 2°52.457 -999 4.293785 31.91842 -0.612702
2005-08-23 07:03:07 51°18.004 2°52.466 -999 4.297311 31.948917 -0.612702
2005-08-23 07:03:12 51°18.021 2°52.48 -999 4.297311 31.948917 -0.612702
2005-08-23 07:03:17 51°18.036 2°52.493 -999 4.286835 31.862561 -0.612702
2005-08-23 07:03:23 51°18.052 2°52.507 -999 4.292436 31.909662 -0.612702
2005-08-23 07:03:28 51°18.067 2°52.521 -999 4.291192 31.899938 -0.612702
2005-08-23 07:03:32 51°18.077 2°52.533 -999 4.293888 31.924154 -0.612702
2005-08-23 07:03:37 51°18.092 2°52.55 -999 4.297104 31.952072 -0.612702
2005-08-23 07:03:43 51°18.107 2°52.567 -999 4.297104 31.952072 -0.612702
2005-08-23 07:03:48 51°18.121 2°52.583 -999 4.281027 31.819216 -0.646411
2005-08-23 07:03:52 51°18.132 2°52.597 -999 4.283413 31.839623 -0.646411
2005-08-23 07:03:58 51°18.148 2°52.617 -999 4.284657 31.849954 -0.646411
2005-08-23 07:04:02 51°18.159 2°52.63 -999 4.27553 31.775419 -0.646411
2005-08-23 07:04:07 51°18.171 2°52.646 -999 4.270448 31.735069 -0.646411
2005-08-23 07:04:12 51°18.184 2°52.663 -999 4.270448 31.735069 -0.646411
2005-08-23 07:04:18 51°18.198 2°52.682 -999 4.290258 31.900712 -0.646411
2005-08-23 07:04:23 51°18.21 2°52.7 -999 4.291503 31.912875 -0.646411
2005-08-23 07:04:28 51°18.221 2°52.719 -999 4.292955 31.926153 -0.646411
2005-08-23 07:04:33 51°18.232 2°52.739 -999 4.291296 31.912371 -0.646411
2005-08-23 07:04:38 51°18.243 2°52.762 -999 4.291607 31.914955 -0.646411
2005-08-23 07:04:43 51°18.251 2°52.782 -999 4.291607 31.914955 -0.646411
2005-08-23 07:04:48 51°18.261 2°52.803 -999 4.289947 31.900564 -0.646411
2005-08-23 07:04:52 51°18.268 2°52.823 -999 4.28891 31.891342 -0.646411
2005-08-23 07:04:57 51°18.278 2°52.844 -999 4.291296 31.911152 -0.646411
2005-08-23 07:05:03 51°18.288 2°52.867 -999 4.288599 31.889368 -0.646411
2005-08-23 07:05:08 51°18.299 2°52.889 -999 4.290155 31.903505 -0.646411
2005-08-23 07:05:13 51°18.309 2°52.911 -999 4.290155 31.903505 -0.646411
2005-08-23 07:05:18 51°18.318 2°52.934 -999 4.288806 31.894135 -0.646411
2005-08-23 07:05:23 51°18.327 2°52.955 -999 4.290984 31.914052 -0.646411
2005-08-23 07:05:27 51°18.333 2°52.976 -999 4.286732 31.881169 -0.646411
2005-08-23 07:05:33 51°18.342 2°53.002 -999 4.256965 31.635308 -0.612702
2005-08-23 07:05:38 51°18.348 2°53.03 -999 4.273248 31.771039 -0.612702
2005-08-23 07:05:43 51°18.355 2°53.051 -999 4.273248 31.771039 -0.612702
2005-08-23 07:05:48 51°18.358 2°53.079 -999 4.282065 31.844843 -0.646411
2005-08-23 07:05:52 51°18.366 2°53.099 -999 4.284346 31.863792 -0.612702
2005-08-23 07:05:58 51°18.371 2°53.127 -999 4.277293 31.80462 -0.612702
2005-08-23 07:06:03 51°18.378 2°53.151 -999 4.281546 31.840536 -0.646411
2005-08-23 07:06:07 51°18.383 2°53.175 -999 4.267855 31.727485 -0.612702
2005-08-23 07:06:11 51°18.387 2°53.195 -999 4.267855 31.727485 -0.612702
2005-08-23 07:06:18 51°18.395 2°53.229 -999 4.258728 31.653561 -0.646411
2005-08-23 07:06:23 51°18.402 2°53.251 -999 4.268581 31.736542 -0.612702
2005-08-23 07:06:27 51°18.406 2°53.274 -999 4.278849 31.824222 -0.612702
2005-08-23 07:06:33 51°18.414 2°53.301 -999 4.278953 31.826299 -0.612702
2005-08-23 07:06:38 51°18.42 2°53.328 -999 4.279472 31.832431 -0.612702
2005-08-23 07:06:43 51°18.425 2°53.351 -999 4.279472 31.832431 -0.612702
2005-08-23 07:06:47 51°18.432 2°53.373 -999 4.27802 31.822802 -0.612702
2005-08-23 07:06:51 51°18.437 2°53.393 -999 4.276879 31.814542 -0.612702
2005-08-23 07:06:58 51°18.445 2°53.424 -999 4.274908 31.800605 -0.612702
2005-08-23 07:07:02 51°18.452 2°53.446 -999 4.274493 31.79959 -0.612702
2005-08-23 07:07:07 51°18.458 2°53.471 -999 4.273767 31.794775 -0.612702
2005-08-23 07:07:13 51°18.467 2°53.498 -999 4.273767 31.794775 -0.612702
2005-08-23 07:07:18 51°18.474 2°53.522 -999 4.274286 31.800906 -0.578993
2005-08-23 07:07:23 51°18.481 2°53.545 -999 4.262151 31.701336 -0.578993
2005-08-23 07:07:27 51°18.486 2°53.565 -999 4.269722 31.765427 -0.578993
2005-08-23 07:07:33 51°18.496 2°53.594 -999 4.269826 31.767503 -0.545283
2005-08-23 07:07:38 51°18.504 2°53.619 -999 4.270448 31.773887 -0.545283
2005-08-23 07:07:42 51°18.509 2°53.639 -999 4.270448 31.773887 -0.545283
2005-08-23 07:07:47 51°18.517 2°53.663 -999 4.270656 31.776825 -0.545283
2005-08-23 07:07:51 51°18.522 2°53.682 -999 4.269722 31.769678 -0.545283
2005-08-23 07:07:58 51°18.532 2°53.712 -999 4.270656 31.778648 -0.545283
2005-08-23 07:08:03 51°18.538 2°53.737 -999 4.264433 31.728166 -0.545283
2005-08-23 07:08:08 51°18.546 2°53.761 -999 4.263914 31.723252 -0.545283
2005-08-23 07:08:13 51°18.552 2°53.786 -999 4.263914 31.723252 -0.545283
2005-08-23 07:08:17 51°18.56 2°53.806 -999 4.268478 31.760553 -0.545283
2005-08-23 07:08:23 51°18.567 2°53.832 -999 4.269515 31.769777 -0.545283
2005-08-23 07:08:28 51°18.575 2°53.856 -999 4.262462 31.711798 -0.545283
2005-08-23 07:08:32 51°18.581 2°53.878 -999 4.268582 31.764451 -0.545283
2005-08-23 07:08:38 51°18.59 2°53.906 -999 4.267856 31.759634 -0.545283
2005-08-23 07:08:43 51°18.597 2°53.927 -999 4.267856 31.759634 -0.545283
2005-08-23 07:08:47 51°18.604 2°53.948 -999 4.269619 31.774283 -0.545283
2005-08-23 07:08:52 51°18.611 2°53.973 -999 4.267337 31.755325 -0.545283
2005-08-23 07:08:58 51°18.619 2°54.002 -999 4.264848 31.735859 -0.545283
2005-08-23 07:09:03 51°18.626 2°54.022 -999 4.270656 31.784724 -0.578993
2005-08-23 07:09:08 51°18.634 2°54.047 -999 4.267441 31.758009 -0.578993
2005-08-23 07:09:12 51°18.639 2°54.066 -999 4.267441 31.758009 -0.578993
2005-08-23 07:09:18 51°18.648 2°54.094 -999 4.25458 31.651786 -0.578993
2005-08-23 07:09:23 51°18.657 2°54.118 -999 4.271486 31.792835 -0.578993
2005-08-23 07:09:28 51°18.663 2°54.143 -999 4.256343 31.666429 -0.578993
2005-08-23 07:09:32 51°18.67 2°54.161 -999 4.269619 31.777929 -0.578993
2005-08-23 07:09:38 51°18.679 2°54.19 -999 4.270241 31.783708 -0.578993
2005-08-23 07:09:43 51°18.687 2°54.213 -999 4.270241 31.783708 -0.578993
2005-08-23 07:09:48 51°18.694 2°54.237 -999 4.268167 31.767078 -0.612702
2005-08-23 07:09:53 51°18.701 2°54.261 -999 4.273456 31.811037 -0.612702
2005-08-23 07:09:56 51°18.707 2°54.277 -999 4.270137 31.782846 -0.612702
2005-08-23 07:10:02 51°18.716 2°54.306 -999 4.272523 31.802671 -0.612702
2005-08-23 07:10:07 51°18.723 2°54.33 -999 4.269308 31.775343 -0.612702
2005-08-23 07:10:13 51°18.731 2°54.357 -999 4.269308 31.775343 -0.612702
2005-08-23 07:10:18 51°18.737 2°54.381 -999 4.270656 31.78594 -0.612702
2005-08-23 07:10:23 51°18.744 2°54.406 -999 4.268374 31.766372 -0.612702
2005-08-23 07:10:27 51°18.75 2°54.424 -999 4.275531 31.825844 -0.612702
2005-08-23 07:10:31 51°18.756 2°54.444 -999 4.265678 31.743359 -0.612702
2005-08-23 07:10:36 51°18.764 2°54.471 -999 4.26993 31.778691 -0.612702
2005-08-23 07:10:43 51°18.771 2°54.504 -999 4.26993 31.778691 -0.612702
2005-08-23 07:10:47 51°18.779 2°54.524 -999 4.274701 31.817731 -0.612702
2005-08-23 07:10:53 51°18.786 2°54.552 -999 4.276049 31.827111 -0.612702
2005-08-23 07:10:58 51°18.794 2°54.575 -999 4.269204 31.769014 -0.578993
2005-08-23 07:11:03 51°18.799 2°54.599 -999 4.263188 31.717829 -0.578993
2005-08-23 07:11:07 51°18.807 2°54.621 -999 4.279679 31.853628 -0.578993
2005-08-23 07:11:11 51°18.812 2°54.637 -999 4.279679 31.853628 -0.578993
2005-08-23 07:11:18 51°18.822 2°54.674 -999 4.281858 31.870512 -0.545283
2005-08-23 07:11:23 51°18.828 2°54.695 -999 4.285799 31.903882 -0.545283
2005-08-23 07:11:28 51°18.836 2°54.72 -999 4.286421 31.907836 -0.545283
2005-08-23 07:11:33 51°18.843 2°54.744 -999 4.278953 31.845768 -0.545283
2005-08-23 07:11:38 51°18.85 2°54.771 -999 4.285384 31.899214 -0.545283
2005-08-23 07:11:43 51°18.856 2°54.792 -999 4.285384 31.899214 -0.545283
2005-08-23 07:11:48 51°18.863 2°54.817 -999 4.286318 31.907583 -0.545283
2005-08-23 07:11:51 51°18.868 2°54.834 -999 4.285903 31.904745 -0.511574
2005-08-23 07:11:58 51°18.878 2°54.868 -999 4.284865 31.897342 -0.511574
2005-08-23 07:12:03 51°18.884 2°54.89 -999 4.284243 31.893389 -0.511574
2005-08-23 07:12:08 51°18.891 2°54.915 -999 4.287044 31.91789 -0.511574
2005-08-23 07:12:13 51°18.897 2°54.941 -999 4.287044 31.91789 -0.511574
2005-08-23 07:12:18 51°18.906 2°54.965 -999 4.287459 31.922561 -0.477864
2005-08-23 07:12:23 51°18.912 2°54.988 -999 4.284036 31.894714 -0.477864
2005-08-23 07:12:27 51°18.918 2°55.009 -999 4.285488 31.908006 -0.477864
2005-08-23 07:12:33 51°18.927 2°55.037 -999 4.288392 31.933376 -0.444155
2005-08-23 07:12:38 51°18.932 2°55.061 -999 4.285799 31.913035 -0.444155
2005-08-23 07:12:43 51°18.94 2°55.084 -999 4.285799 31.913035 -0.444155
2005-08-23 07:12:48 51°18.947 2°55.109 -999 4.289948 31.947536 -0.444155
2005-08-23 07:12:51 51°18.952 2°55.126 -999 4.280924 31.873113 -0.444155
2005-08-23 07:12:58 51°18.963 2°55.159 -999 4.287977 31.931758 -0.444155
2005-08-23 07:13:03 51°18.968 2°55.182 -999 4.28414 31.899846 -0.444155
2005-08-23 07:13:07 51°18.975 2°55.203 -999 4.290155 31.950483 -0.410446
2005-08-23 07:13:13 51°18.984 2°55.231 -999 4.290155 31.950483 -0.410446
2005-08-23 07:13:18 51°18.992 2°55.256 -999 4.289844 31.948506 -0.410446
2005-08-23 07:13:23 51°18.998 2°55.278 -999 4.287874 31.932727 -0.410446
2005-08-23 07:13:28 51°19.006 2°55.303 -999 4.289741 31.947643 -0.410446
2005-08-23 07:13:31 51°19.01 2°55.32 -999 4.284243 31.901318 -0.410446
2005-08-23 07:13:38 51°19.021 2°55.353 -999 4.276672 31.837153 -0.343027
2005-08-23 07:13:43 51°19.028 2°55.375 -999 4.276672 31.837153 -0.343027
2005-08-23 07:13:48 51°19.035 2°55.399 -999 4.279368 31.858351 -0.039642
2005-08-23 07:13:52 51°19.043 2°55.42 -999 4.287148 31.926079 -0.275608
2005-08-23 07:13:57 51°19.05 2°55.444 -999 4.273871 31.818745 -0.343027
2005-08-23 07:14:03 51°19.058 2°55.47 -999 4.284866 31.912597 -0.376736
2005-08-23 07:14:08 51°19.065 2°55.495 -999 4.285903 31.923055 -0.376736
2005-08-23 07:14:13 51°19.073 2°55.519 -999 4.285903 31.923055 -0.376736
2005-08-23 07:14:18 51°19.081 2°55.545 -999 4.284243 31.909863 -0.410446
2005-08-23 07:14:23 51°19.087 2°55.567 -999 4.288496 31.945235 -0.410446
2005-08-23 07:14:27 51°19.094 2°55.589 -999 4.26993 31.789633 -0.410446
2005-08-23 07:14:31 51°19.1 2°55.609 -999 4.286629 31.927873 -0.410446
2005-08-23 07:14:38 51°19.108 2°55.64 -999 4.286318 31.924063 -0.410446
2005-08-23 07:14:43 51°19.116 2°55.665 -999 4.286318 31.924063 -0.410446
2005-08-23 07:14:48 51°19.123 2°55.69 -999 4.284036 31.904475 -0.410446
2005-08-23 07:14:53 51°19.13 2°55.714 -999 4.2886 31.942431 -0.376736
2005-08-23 07:14:56 51°19.136 2°55.73 -999 4.282065 31.888087 -0.376736
2005-08-23 07:15:02 51°19.143 2°55.759 -999 4.284347 31.905842 -0.376736
2005-08-23 07:15:07 51°19.151 2°55.784 -999 4.283829 31.900919 -0.343027
2005-08-23 07:15:13 51°19.159 2°55.811 -999 4.283829 31.900919 -0.343027
2005-08-23 07:15:18 51°19.165 2°55.839 -999 4.280821 31.875299 -0.343027
2005-08-23 07:15:23 51°19.173 2°55.86 -999 4.281028 31.875804 -0.343027
2005-08-23 07:15:27 51°19.178 2°55.883 -999 4.265885 31.749333 -0.343027
2005-08-23 07:15:31 51°19.185 2°55.901 -999 4.27719 31.842682 -0.376736
2005-08-23 07:15:38 51°19.194 2°55.936 -999 4.279576 31.861903 -0.343027
2005-08-23 07:15:43 51°19.201 2°55.957 -999 4.279576 31.861903 -0.343027
2005-08-23 07:15:48 51°19.208 2°55.983 -999 4.260077 31.699259 -0.343027
2005-08-23 07:15:52 51°19.214 2°56.001 -999 4.273871 31.81266 -0.343027
2005-08-23 07:15:58 51°19.223 2°56.034 -999 4.276361 31.83274 -0.343027
2005-08-23 07:16:03 51°19.23 2°56.058 -999 4.272212 31.79826 -0.309317
2005-08-23 07:16:08 51°19.236 2°56.08 -999 4.265159 31.738444 -0.309317
2005-08-23 07:16:12 51°19.242 2°56.103 -999 4.265159 31.738444 -0.309317
2005-08-23 07:16:18 51°19.25 2°56.13 -999 4.276257 31.830661 -0.309317
2005-08-23 07:16:22 51°19.255 2°56.152 -999 4.256965 31.670991 -0.309317
2005-08-23 07:16:27 51°19.261 2°56.177 -999 4.266922 31.7537 -0.309317
2005-08-23 07:16:33 51°19.269 2°56.205 -999 4.272108 31.797398 -0.309317
2005-08-23 07:16:38 51°19.276 2°56.232 -999 4.253647 31.644639 -0.309317
2005-08-23 07:16:42 51°19.283 2°56.25 -999 4.253647 31.644639 -0.309317
2005-08-23 07:16:47 51°19.289 2°56.276 -999 4.265574 31.743105 -0.309317
2005-08-23 07:16:52 51°19.296 2°56.299 -999 4.273353 31.807134 -0.275608
2005-08-23 07:16:55 51°19.3 2°56.314 -999 4.270863 31.786448 -0.275608
2005-08-23 07:17:03 51°19.311 2°56.351 -999 4.268685 31.767742 -0.275608
2005-08-23 07:17:07 51°19.317 2°56.37 -999 4.26464 31.733529 -0.275608
2005-08-23 07:17:11 51°19.322 2°56.389 -999 4.26464 31.733529 -0.275608
2005-08-23 07:17:18 51°19.331 2°56.425 -999 4.273353 31.805309 -0.275608
2005-08-23 07:17:23 51°19.338 2°56.449 -999 4.269411 31.771952 -0.241899
2005-08-23 07:17:27 51°19.343 2°56.472 -999 4.253854 31.641522 -0.241899
2005-08-23 07:17:32 51°19.349 2°56.495 -999 4.262359 31.711543 -0.241899
2005-08-23 07:17:38 51°19.358 2°56.526 -999 4.253335 31.636007 -0.241899
2005-08-23 07:17:43 51°19.364 2°56.547 -999 4.253335 31.636007 -0.241899
2005-08-23 07:17:47 51°19.37 2°56.57 -999 4.264537 31.728421 -0.241899
2005-08-23 07:17:52 51°19.377 2°56.594 -999 4.263188 31.716616 -0.241899
2005-08-23 07:17:58 51°19.385 2°56.624 -999 4.257069 31.665798 -0.241899
2005-08-23 07:18:03 51°19.392 2°56.645 -999 4.267544 31.752192 -0.241899
2005-08-23 07:18:08 51°19.398 2°56.671 -999 4.264744 31.728931 -0.208189
2005-08-23 07:18:12 51°19.404 2°56.69 -999 4.264744 31.728931 -0.208189
2005-08-23 07:18:17 51°19.411 2°56.716 -999 4.258003 31.672944 -0.208189
2005-08-23 07:18:23 51°19.419 2°56.743 -999 4.256862 31.663471 -0.208189
2005-08-23 07:18:27 51°19.425 2°56.765 -999 4.258417 31.676389 -0.208189
2005-08-23 07:18:33 51°19.432 2°56.793 -999 4.265263 31.732025 -0.17448
2005-08-23 07:18:36 51°19.438 2°56.806 -999 4.258936 31.680089 -0.17448
2005-08-23 07:18:43 51°19.446 2°56.84 -999 4.258936 31.680089 -0.17448
2005-08-23 07:18:47 51°19.452 2°56.863 -999 4.259558 31.684651 -0.17448
2005-08-23 07:18:53 51°19.459 2°56.89 -999 4.259351 31.682323 -0.17448
2005-08-23 07:18:58 51°19.467 2°56.915 -999 4.241305 31.532526 -0.17448
2005-08-23 07:19:03 51°19.474 2°56.938 -999 4.251572 31.617742 -0.17448
2005-08-23 07:19:07 51°19.479 2°56.961 -999 4.263188 31.714191 -0.17448
2005-08-23 07:19:12 51°19.486 2°56.986 -999 4.263188 31.714191 -0.17448
2005-08-23 07:19:15 51°19.489 2°57.001 -999 4.24452 31.558603 -0.17448
2005-08-23 07:19:23 51°19.5 2°57.037 -999 4.259454 31.681973 -0.17448
2005-08-23 07:19:27 51°19.504 2°57.058 -999 4.258625 31.673873 -0.17448
2005-08-23 07:19:33 51°19.513 2°57.087 -999 4.257069 31.660351 -0.17448
2005-08-23 07:19:38 51°19.52 2°57.112 -999 4.254165 31.635034 -0.208189
2005-08-23 07:19:43 51°19.527 2°57.136 -999 4.254165 31.635034 -0.208189
2005-08-23 07:19:48 51°19.533 2°57.162 -999 4.251261 31.610326 -0.208189
2005-08-23 07:19:52 51°19.541 2°57.183 -999 4.250431 31.602835 -0.208189
2005-08-23 07:19:58 51°19.549 2°57.212 -999 4.238919 31.507314 -0.208189
2005-08-23 07:20:03 51°19.555 2°57.234 -999 4.246075 31.566084 -0.208189
2005-08-23 07:20:08 51°19.562 2°57.26 -999 4.244209 31.550594 -0.208189
2005-08-23 07:20:12 51°19.568 2°57.278 -999 4.244209 31.550594 -0.208189
2005-08-23 07:20:18 51°19.576 2°57.308 -999 4.244727 31.554896 -0.208189
2005-08-23 07:20:23 51°19.583 2°57.332 -999 4.243794 31.547152 -0.208189
2005-08-23 07:20:27 51°19.588 2°57.355 -999 4.251468 31.610235 -0.208189
2005-08-23 07:20:33 51°19.597 2°57.382 -999 4.252298 31.617121 -0.208189
2005-08-23 07:20:38 51°19.603 2°57.407 -999 4.249394 31.592417 -0.208189
2005-08-23 07:20:43 51°19.611 2°57.433 -999 4.249394 31.592417 -0.208189
2005-08-23 07:20:48 51°19.617 2°57.459 -999 4.25458 31.63485 -0.208189
2005-08-23 07:20:53 51°19.623 2°57.481 -999 4.251779 31.611005 -0.208189
2005-08-23 07:20:55 51°19.626 2°57.494 -999 4.251261 31.606702 -0.208189
2005-08-23 07:21:03 51°19.636 2°57.531 -999 4.250016 31.59577 -0.208189
2005-08-23 07:21:07 51°19.643 2°57.552 -999 4.257173 31.655163 -0.208189
2005-08-23 07:21:12 51°19.649 2°57.577 -999 4.257173 31.655163 -0.208189
2005-08-23 07:21:18 51°19.657 2°57.607 -999 4.246283 31.564789 -0.17448
2005-08-23 07:21:23 51°19.662 2°57.63 -999 4.25292 31.619869 -0.208189
2005-08-23 07:21:28 51°19.669 2°57.654 -999 4.253024 31.619522 -0.208189
2005-08-23 07:21:33 51°19.676 2°57.679 -999 4.248046 31.578211 -0.208189
2005-08-23 07:21:38 51°19.683 2°57.706 -999 4.253646 31.623477 -0.17448
2005-08-23 07:21:43 51°19.689 2°57.728 -999 4.253646 31.623477 -0.17448
2005-08-23 07:21:47 51°19.695 2°57.751 -999 4.251261 31.603682 -0.208189
2005-08-23 07:21:53 51°19.704 2°57.78 -999 4.246594 31.564958 -0.17448
2005-08-23 07:21:58 51°19.708 2°57.803 -999 4.247216 31.569518 -0.17448
2005-08-23 07:22:03 51°19.716 2°57.826 -999 4.237882 31.49149 -0.17448
2005-08-23 07:22:08 51°19.722 2°57.852 -999 4.245038 31.550846 -0.17448
2005-08-23 07:22:12 51°19.727 2°57.872 -999 4.245038 31.550846 -0.17448
2005-08-23 07:22:17 51°19.735 2°57.898 -999 4.238919 31.500091 -0.17448
2005-08-23 07:22:23 51°19.741 2°57.926 -999 4.241097 31.517553 -0.208189
2005-08-23 07:22:27 51°19.748 2°57.948 -999 4.246179 31.56031 -0.17448
2005-08-23 07:22:33 51°19.755 2°57.976 -999 4.227926 31.408335 -0.17448
2005-08-23 07:22:38 51°19.762 2°58.003 -999 4.24649 31.562892 -0.17448
2005-08-23 07:22:43 51°19.768 2°58.025 -999 4.24649 31.562892 -0.17448
2005-08-23 07:22:47 51°19.774 2°58.044 -999 4.24452 31.546544 -0.17448
2005-08-23 07:22:52 51°19.779 2°58.069 -999 4.237882 31.49149 -0.17448
2005-08-23 07:22:57 51°19.788 2°58.095 -999 4.228963 31.417533 -0.17448
2005-08-23 07:23:03 51°19.794 2°58.123 -999 4.243794 31.540522 -0.17448
2005-08-23 07:23:07 51°19.801 2°58.145 -999 4.249913 31.591891 -0.17448
2005-08-23 07:23:13 51°19.807 2°58.173 -999 4.249913 31.591891 -0.17448
2005-08-23 07:23:17 51°19.814 2°58.194 -999 4.223259 31.37025 -0.17448
2005-08-23 07:23:23 51°19.82 2°58.221 -999 4.251468 31.6048 -0.17448
2005-08-23 07:23:27 51°19.827 2°58.243 -999 4.233734 31.457689 -0.17448
2005-08-23 07:23:33 51°19.833 2°58.27 -999 4.245557 31.555751 -0.17448
2005-08-23 07:23:38 51°19.841 2°58.295 -999 4.249913 31.591287 -0.17448
2005-08-23 07:23:43 51°19.847 2°58.318 -999 4.249913 31.591287 -0.17448
2005-08-23 07:23:47 51°19.852 2°58.339 -999 4.250431 31.596194 -0.17448
2005-08-23 07:23:51 51°19.858 2°58.362 -999 4.239438 31.504994 -0.17448
2005-08-23 07:23:58 51°19.866 2°58.393 -999 4.226785 31.400078 -0.17448
2005-08-23 07:24:03 51°19.874 2°58.417 -999 4.246179 31.561516 -0.14077
2005-08-23 07:24:08 51°19.88 2°58.443 -999 4.242238 31.528822 -0.17448
2005-08-23 07:24:11 51°19.883 2°58.46 -999 4.242238 31.528822 -0.17448
2005-08-23 07:24:18 51°19.893 2°58.494 -999 4.249498 31.589656 -0.17448
2005-08-23 07:24:23 51°19.898 2°58.516 -999 4.252402 31.613753 -0.17448
2005-08-23 07:24:27 51°19.904 2°58.539 -999 4.247216 31.570724 -0.14077
2005-08-23 07:24:32 51°19.911 2°58.56 -999 4.252505 31.614614 -0.14077
2005-08-23 07:24:38 51°19.919 2°58.592 -999 4.242964 31.536049 -0.14077
2005-08-23 07:24:42 51°19.924 2°58.611 -999 4.242964 31.536049 -0.14077
2005-08-23 07:24:48 51°19.932 2°58.638 -999 4.24732 31.571585 -0.14077
2005-08-23 07:24:52 51°19.937 2°58.658 -999 4.247735 31.575027 -0.14077
2005-08-23 07:24:58 51°19.946 2°58.69 -999 4.257795 31.658513 -0.14077
2005-08-23 07:25:03 51°19.952 2°58.714 -999 4.247942 31.575541 -0.14077
2005-08-23 07:25:08 51°19.959 2°58.736 -999 4.252402 31.613149 -0.14077
2005-08-23 07:25:13 51°19.964 2°58.761 -999 4.252402 31.613149 -0.14077
2005-08-23 07:25:18 51°19.973 2°58.784 -999 4.254787 31.632945 -0.14077
2005-08-23 07:25:22 51°19.978 2°58.806 -999 4.247009 31.569003 -0.107061
2005-08-23 07:25:27 51°19.984 2°58.83 -999 4.257587 31.657396 -0.14077
2005-08-23 07:25:33 51°19.992 2°58.857 -999 4.243794 31.542932 -0.14077
2005-08-23 07:25:38 51°19.997 2°58.882 -999 4.253957 31.627872 -0.14077
2005-08-23 07:25:43 51°20.005 2°58.906 -999 4.253957 31.627872 -0.14077
2005-08-23 07:25:47 51°20.01 2°58.925 -999 4.258521 31.666355 -0.14077
2005-08-23 07:25:51 51°20.014 2°58.945 -999 4.25655 31.651207 -0.107061
2005-08-23 07:25:58 51°20.024 2°58.981 -999 4.256965 31.65586 -0.107061
2005-08-23 07:26:02 51°20.029 2°59.002 -999 4.254372 31.635547 -0.107061
2005-08-23 07:26:07 51°20.037 2°59.025 -999 4.252091 31.617816 -0.107061
2005-08-23 07:26:13 51°20.043 2°59.052 -999 4.252091 31.617816 -0.107061
2005-08-23 07:26:18 51°20.049 2°59.079 -999 4.25012 31.602065 -0.107061
2005-08-23 07:26:23 51°20.056 2°59.1 -999 4.235082 31.478491 -0.107061
2005-08-23 07:26:27 51°20.061 2°59.123 -999 4.247631 31.583218 -0.107061
2005-08-23 07:26:33 51°20.069 2°59.149 -999 4.226993 31.412599 -0.107061
2005-08-23 07:26:38 51°20.075 2°59.176 -999 4.246283 31.572631 -0.107061
2005-08-23 07:26:43 51°20.081 2°59.198 -999 4.246283 31.572631 -0.107061
2005-08-23 07:26:48 51°20.088 2°59.222 -999 4.24006 31.521597 -0.14077
2005-08-23 07:26:52 51°20.093 2°59.244 -999 4.24452 31.558603 -0.14077
2005-08-23 07:26:58 51°20.101 2°59.273 -999 4.237675 31.502408 -0.14077
2005-08-23 07:27:03 51°20.106 2°59.296 -999 4.240682 31.527965 -0.14077
2005-08-23 07:27:08 51°20.113 2°59.319 -999 4.240371 31.525986 -0.14077
2005-08-23 07:27:13 51°20.119 2°59.345 -999 4.240371 31.525986 -0.14077
2005-08-23 07:27:18 51°20.126 2°59.37 -999 4.228237 31.425923 -0.14077
2005-08-23 07:27:23 51°20.132 2°59.392 -999 4.219941 31.358319 -0.17448
2005-08-23 07:27:28 51°20.138 2°59.417 -999 4.239749 31.523232 -0.17448
2005-08-23 07:27:32 51°20.144 2°59.438 -999 4.244209 31.560846 -0.208189
2005-08-23 07:27:38 51°20.151 2°59.465 -999 4.246076 31.575738 -0.208189
2005-08-23 07:27:43 51°20.156 2°59.491 -999 4.246076 31.575738 -0.208189
2005-08-23 07:27:48 51°20.164 2°59.514 -999 4.246801 31.581764 -0.208189
2005-08-23 07:27:53 51°20.169 2°59.54 -999 4.247527 31.586583 -0.241899
2005-08-23 07:27:58 51°20.177 2°59.562 -999 4.249083 31.598288 -0.241899
2005-08-23 07:28:02 51°20.181 2°59.584 -999 4.24815 31.589333 -0.241899
2005-08-23 07:28:08 51°20.189 2°59.609 -999 4.252713 31.626608 -0.241899
2005-08-23 07:28:13 51°20.194 2°59.635 -999 4.252713 31.626608 -0.241899
2005-08-23 07:28:18 51°20.201 2°59.658 -999 4.255513 31.648646 -0.208189
2005-08-23 07:28:22 51°20.207 2°59.679 -999 4.254891 31.64348 -0.17448
2005-08-23 07:28:28 51°20.211 2°59.708 -999 4.250535 31.608528 -0.14077
2005-08-23 07:28:33 51°20.218 2°59.731 -999 4.247216 31.584 -0.107061
2005-08-23 07:28:38 51°20.224 2°59.758 -999 4.242342 31.545955 -0.107061
2005-08-23 07:28:43 51°20.232 2°59.778 -999 4.242342 31.545955 -0.107061
2005-08-23 07:28:47 51°20.235 2°59.799 -999 4.237779 31.50929 -0.073352
2005-08-23 07:28:53 51°20.245 2°59.826 -999 4.236534 31.50077 -0.073352
2005-08-23 07:28:58 51°20.251 2°59.852 -999 4.233941 31.480458 -0.039642
2005-08-23 07:29:03 51°20.257 2°59.874 -999 4.232904 31.473658 -0.039642
2005-08-23 07:29:07 51°20.262 2°59.895 -999 4.231038 31.458769 -0.039642
2005-08-23 07:29:12 51°20.268 2°59.919 -999 4.231038 31.458769 -0.039642
2005-08-23 07:29:18 51°20.275 2°59.949 -999 4.230415 31.454809 -0.039642
2005-08-23 07:29:23 51°20.281 2°59.97 -999 4.229793 31.449044 -0.005933
2005-08-23 07:29:28 51°20.287 2°59.995 -999 4.222948 31.392858 -0.039642
2005-08-23 07:29:32 51°20.294 3°0.015 -999 4.224815 31.408344 -0.039642
2005-08-23 07:29:38 51°20.299 3°0.042 -999 4.227097 31.427874 -0.039642
2005-08-23 07:29:43 51°20.306 3°0.066 -999 4.227097 31.427874 -0.039642
2005-08-23 07:29:48 51°20.314 3°0.09 -999 4.226475 31.423312 -0.039642
2005-08-23 07:29:52 51°20.318 3°0.109 -999 4.225852 31.41815 -0.039642
2005-08-23 07:29:58 51°20.326 3°0.138 -999 4.224815 31.409545 -0.039642
2005-08-23 07:30:03 51°20.333 3°0.16 -999 4.224815 31.409545 -0.039642
2005-08-23 07:30:07 51°20.337 3°0.182 -999 4.224608 31.407825 -0.039642
2005-08-23 07:30:13 51°20.347 3°0.208 -999 4.224608 31.407825 -0.039642
2005-08-23 07:30:18 51°20.352 3°0.232 -999 4.222845 31.393199 -0.073352
2005-08-23 07:30:23 51°20.359 3°0.254 -999 4.219941 31.367312 -0.073352
2005-08-23 07:30:28 51°20.364 3°0.28 -999 4.21517 31.324753 -0.073352
2005-08-23 07:30:32 51°20.371 3°0.299 -999 4.213822 31.309983 -0.073352
2005-08-23 07:30:35 51°20.374 3°0.314 -999 4.207807 31.252955 -0.073352
2005-08-23 07:30:42 51°20.382 3°0.347 -999 4.207807 31.252955 -0.073352
2005-08-23 07:30:48 51°20.389 3°0.373 -999 4.200444 31.18063 -0.073352
2005-08-23 07:30:52 51°20.395 3°0.394 -999 4.196815 31.139276 -0.073352
2005-08-23 07:30:58 51°20.402 3°0.42 -999 4.1936 31.105543 -0.107061
2005-08-23 07:31:03 51°20.407 3°0.444 -999 4.191007 31.078756 -0.14077
2005-08-23 07:31:07 51°20.414 3°0.465 -999 4.191007 31.075791 -0.14077
2005-08-23 07:31:12 51°20.419 3°0.489 -999 4.191007 31.075791 -0.14077
2005-08-23 07:31:17 51°20.427 3°0.512 -999 4.190281 31.068602 -0.17448
2005-08-23 07:31:23 51°20.432 3°0.539 -999 4.190177 31.067152 -0.17448
2005-08-23 07:31:27 51°20.438 3°0.557 -999 4.191526 31.079487 -0.17448
2005-08-23 07:31:32 51°20.445 3°0.582 -999 4.189244 31.057656 -0.17448
2005-08-23 07:31:38 51°20.452 3°0.611 -999 4.092193 30.252556 -0.14077
2005-08-23 07:31:43 51°20.457 3°0.632 -999 4.092193 30.252556 -0.14077
2005-08-23 07:31:47 51°20.463 3°0.654 -999 4.185511 31.018503 -0.14077
2005-08-23 07:31:53 51°20.47 3°0.68 -999 4.183541 30.99808 -0.107061
2005-08-23 07:31:58 51°20.475 3°0.703 -999 4.182503 30.984785 -0.107061
2005-08-23 07:32:03 51°20.481 3°0.727 -999 4.181052 30.969248 -0.073352
2005-08-23 07:32:07 51°20.487 3°0.748 -999 4.180015 30.955371 -0.073352
2005-08-23 07:32:12 51°20.492 3°0.773 -999 4.180015 30.955371 -0.073352
2005-08-23 07:32:15 51°20.496 3°0.787 -999 4.179081 30.944125 -0.039642
2005-08-23 07:32:22 51°20.505 3°0.819 -999 4.17877 30.939198 -0.039642
2005-08-23 07:32:27 51°20.51 3°0.84 -999 4.178355 30.935184 -0.039642
2005-08-23 07:32:33 51°20.519 3°0.868 -999 4.178563 30.936307 -0.039642
2005-08-23 07:32:38 51°20.523 3°0.892 -999 4.178563 30.936897 -0.039642
2005-08-23 07:32:43 51°20.531 3°0.915 -999 4.178563 30.936897 -0.039642
2005-08-23 07:32:48 51°20.536 3°0.94 -999 4.178355 30.935184 -0.039642
2005-08-23 07:32:52 51°20.543 3°0.96 -999 4.178874 30.940055 -0.039642
2005-08-23 07:32:58 51°20.549 3°0.989 -999 4.177318 30.927211 -0.039642
2005-08-23 07:33:03 51°20.557 3°1.008 -999 4.178355 30.935773 -0.039642
2005-08-23 07:33:07 51°20.561 3°1.031 -999 4.177941 30.932348 -0.073352
2005-08-23 07:33:13 51°20.569 3°1.055 -999 4.177941 30.932348 -0.073352
2005-08-23 07:33:18 51°20.575 3°1.081 -999 4.177837 30.932081 -0.073352
2005-08-23 07:33:23 51°20.58 3°1.102 -999 4.178148 30.93524 -0.039642
2005-08-23 07:33:27 51°20.586 3°1.124 -999 4.177837 30.93326 -0.039642
2005-08-23 07:33:33 51°20.593 3°1.151 -999 4.178252 30.936685 -0.039642
2005-08-23 07:33:38 51°20.599 3°1.176 -999 4.178252 30.937864 -0.039642
2005-08-23 07:33:43 51°20.605 3°1.196 -999 4.178252 30.937864 -0.039642
2005-08-23 07:33:48 51°20.61 3°1.221 -999 4.177837 30.934439 -0.039642
2005-08-23 07:33:52 51°20.617 3°1.241 -999 4.178459 30.940166 -0.005933
2005-08-23 07:33:57 51°20.622 3°1.265 -999 4.178563 30.942202 -0.039642
2005-08-23 07:34:03 51°20.628 3°1.291 -999 4.178252 30.939633 -0.039642
2005-08-23 07:34:08 51°20.635 3°1.314 -999 4.178252 30.939633 -0.005933
2005-08-23 07:34:12 51°20.64 3°1.334 -999 4.178252 30.939633 -0.005933
2005-08-23 07:34:18 51°20.647 3°1.361 -999 4.178252 30.940222 -0.005933
2005-08-23 07:34:23 51°20.653 3°1.387 -999 4.178459 30.942524 -0.005933
2005-08-23 07:34:27 51°20.659 3°1.406 -999 4.178874 30.94654 -0.005933
2005-08-23 07:34:32 51°20.666 3°1.429 -999 4.177837 30.938565 -0.005933
2005-08-23 07:34:35 51°20.668 3°1.444 -999 4.177941 30.940011 -0.005933
2005-08-23 07:34:43 51°20.678 3°1.479 -999 4.177941 30.940011 -0.005933
2005-08-23 07:34:48 51°20.686 3°1.504 -999 4.177319 30.935462 -0.005933
2005-08-23 07:34:52 51°20.691 3°1.52 -999 4.178044 30.941457 -0.005933
2005-08-23 07:34:58 51°20.698 3°1.551 -999 4.178563 30.946329 -0.005933
2005-08-23 07:35:03 51°20.703 3°1.573 -999 4.17763 30.93921 -0.005933
2005-08-23 07:35:08 51°20.71 3°1.596 -999 4.177941 30.943549 -0.005933
2005-08-23 07:35:13 51°20.715 3°1.62 -999 4.177941 30.943549 -0.005933
2005-08-23 07:35:18 51°20.722 3°1.645 -999 4.178252 30.947298 -0.005933
2005-08-23 07:35:23 51°20.728 3°1.666 -999 4.178874 30.953618 -0.005933
2005-08-23 07:35:27 51°20.733 3°1.687 -999 4.178874 30.955388 -0.005933
2005-08-23 07:35:33 51°20.739 3°1.714 -999 4.179082 30.959462 -0.005933
2005-08-23 07:35:38 51°20.746 3°1.74 -999 4.179185 30.9615 -0.005933
2005-08-23 07:35:43 51°20.752 3°1.761 -999 4.179185 30.9615 -0.005933
2005-08-23 07:35:47 51°20.757 3°1.782 -999 4.1796 30.967879 -0.005933
2005-08-23 07:35:53 51°20.765 3°1.809 -999 4.179496 30.968203 -0.005933
2005-08-23 07:35:58 51°20.77 3°1.831 -999 4.179704 30.972279 -0.005933
2005-08-23 07:36:03 51°20.777 3°1.854 -999 4.179704 30.974051 -0.005933
2005-08-23 07:36:07 51°20.782 3°1.875 -999 4.180015 30.978395 0.027777
2005-08-23 07:36:12 51°20.788 3°1.899 -999 4.180015 30.978395 0.027777
2005-08-23 07:36:15 51°20.792 3°1.914 -999 4.179497 30.975881 0.027777
2005-08-23 07:36:23 51°20.8 3°1.948 -999 4.1796 30.977329 -0.005933
2005-08-23 07:36:27 51°20.806 3°1.967 -999 4.179185 30.974492 -0.005933
2005-08-23 07:36:32 51°20.812 3°1.991 -999 4.178771 30.969881 -0.005933
2005-08-23 07:36:37 51°20.818 3°2.016 -999 4.178252 30.963233 -0.005933
2005-08-23 07:36:43 51°20.823 3°2.043 -999 4.178252 30.963233 -0.005933
2005-08-23 07:36:47 51°20.831 3°2.062 -999 4.178252 30.962052 -0.039642
2005-08-23 07:36:51 51°20.835 3°2.082 -999 4.177215 30.952302 -0.073352
2005-08-23 07:36:58 51°20.844 3°2.111 -999 4.177008 30.949408 -0.073352
2005-08-23 07:37:03 51°20.85 3°2.134 -999 4.177008 30.946457 -0.073352
2005-08-23 07:37:07 51°20.855 3°2.152 -999 4.176178 30.937243 -0.107061
2005-08-23 07:37:13 51°20.862 3°2.181 -999 4.176178 30.937243 -0.107061
2005-08-23 07:37:18 51°20.868 3°2.204 -999 4.175452 30.928298 -0.107061
2005-08-23 07:37:23 51°20.874 3°2.228 -999 4.174519 30.917642 -0.107061
2005-08-23 07:37:27 51°20.88 3°2.246 -999 4.174104 30.91127 -0.14077
2005-08-23 07:37:33 51°20.887 3°2.275 -999 4.172963 30.898316 -0.17448
2005-08-23 07:37:38 51°20.893 3°2.296 -999 4.172548 30.89136 -0.17448
2005-08-23 07:37:43 51°20.899 3°2.319 -999 4.172548 30.89136 -0.17448
2005-08-23 07:37:47 51°20.904 3°2.34 -999 4.171615 30.880713 -0.17448
2005-08-23 07:37:53 51°20.913 3°2.366 -999 4.171097 30.873492 -0.14077
2005-08-23 07:37:58 51°20.918 3°2.39 -999 4.171304 30.872851 -0.14077
2005-08-23 07:38:03 51°20.924 3°2.411 -999 4.170889 30.866488 -0.14077
2005-08-23 07:38:07 51°20.929 3°2.43 -999 4.170682 30.861838 -0.107061
2005-08-23 07:38:11 51°20.933 3°2.449 -999 4.170682 30.861838 -0.107061
2005-08-23 07:38:18 51°20.942 3°2.483 -999 4.170371 30.855746 -0.107061
2005-08-23 07:38:23 51°20.947 3°2.504 -999 4.169852 30.847357 -0.107061
2005-08-23 07:38:27 51°20.952 3°2.525 -999 4.170163 30.8464 -0.107061
2005-08-23 07:38:32 51°20.957 3°2.549 -999 4.169126 30.834912 -0.073352
2005-08-23 07:38:37 51°20.964 3°2.571 -999 4.168815 30.83 -0.073352
2005-08-23 07:38:43 51°20.97 3°2.597 -999 4.168815 30.83 -0.073352
2005-08-23 07:38:48 51°20.976 3°2.621 -999 4.169437 30.834544 -0.073352
2005-08-23 07:38:52 51°20.981 3°2.641 -999 4.170267 30.840799 -0.073352
2005-08-23 07:38:57 51°20.986 3°2.664 -999 4.169333 30.833102 -0.107061
2005-08-23 07:39:03 51°20.994 3°2.689 -999 4.169333 30.832515 -0.107061
2005-08-23 07:39:08 51°20.998 3°2.713 -999 4.169541 30.833052 -0.14077
2005-08-23 07:39:13 51°21.005 3°2.735 -999 4.169541 30.833052 -0.14077
2005-08-23 07:39:18 51°21.011 3°2.76 -999 4.16923 30.829314 -0.14077
2005-08-23 07:39:23 51°21.017 3°2.78 -999 4.169644 30.830974 -0.14077
2005-08-23 07:39:27 51°21.022 3°2.801 -999 4.169333 30.827236 -0.14077
2005-08-23 07:39:33 51°21.028 3°2.827 -999 4.16923 30.824622 -0.107061
2005-08-23 07:39:38 51°21.034 3°2.85 -999 4.169437 30.823987 -0.14077
2005-08-23 07:39:43 51°21.04 3°2.872 -999 4.169437 30.823987 -0.14077
2005-08-23 07:39:47 51°21.045 3°2.893 -999 4.169541 30.823083 -0.14077
2005-08-23 07:39:51 51°21.05 3°2.911 -999 4.169748 30.822447 -0.14077
2005-08-23 07:39:58 51°21.058 3°2.943 -999 4.169852 30.82213 -0.17448
2005-08-23 07:40:02 51°21.063 3°2.962 -999 4.169748 30.819517 -0.17448
2005-08-23 07:40:07 51°21.069 3°2.985 -999 4.170163 30.820591 -0.17448
2005-08-23 07:40:12 51°21.076 3°3.007 -999 4.170163 30.820591 -0.17448
2005-08-23 07:40:18 51°21.082 3°3.034 -999 4.170266 30.820274 -0.14077
2005-08-23 07:40:23 51°21.087 3°3.055 -999 4.170577 30.821079 -0.14077
2005-08-23 07:40:28 51°21.095 3°3.078 -999 4.170681 30.820762 -0.14077
2005-08-23 07:40:33 51°21.098 3°3.102 -999 4.170888 30.822471 -0.14077
2005-08-23 07:40:38 51°21.106 3°3.126 -999 4.171199 30.825035 -0.107061
2005-08-23 07:40:43 51°21.111 3°3.147 -999 4.171199 30.825035 -0.107061
2005-08-23 07:40:47 51°21.117 3°3.167 -999 4.171199 30.824449 -0.107061
2005-08-23 07:40:53 51°21.124 3°3.193 -999 4.171303 30.825303 -0.14077
2005-08-23 07:40:58 51°21.129 3°3.215 -999 4.171718 30.828135 -0.107061
2005-08-23 07:41:03 51°21.134 3°3.239 -999 4.171718 30.828135 -0.107061
2005-08-23 07:41:07 51°21.14 3°3.259 -999 4.171718 30.826377 -0.14077
2005-08-23 07:41:12 51°21.145 3°3.282 -999 4.171718 30.826377 -0.14077
2005-08-23 07:41:15 51°21.149 3°3.295 -999 4.171614 30.824351 -0.14077
2005-08-23 07:41:23 51°21.156 3°3.331 -999 4.171303 30.820616 -0.14077
2005-08-23 07:41:27 51°21.163 3°3.348 -999 4.172029 30.826011 -0.14077
2005-08-23 07:41:33 51°21.168 3°3.376 -999 4.171718 30.822862 -0.14077
2005-08-23 07:41:38 51°21.175 3°3.398 -999 4.172029 30.824839 -0.14077
2005-08-23 07:41:43 51°21.18 3°3.424 -999 4.172029 30.824839 -0.14077
2005-08-23 07:41:48 51°21.186 3°3.443 -999 4.172236 30.825376 -0.14077
2005-08-23 07:41:52 51°21.19 3°3.464 -999 4.172029 30.823082 -0.14077
2005-08-23 07:41:58 51°21.198 3°3.492 -999 4.172547 30.826768 -0.14077
2005-08-23 07:42:03 51°21.203 3°3.513 -999 4.172444 30.826499 -0.14077
2005-08-23 07:42:07 51°21.207 3°3.533 -999 4.172651 30.828208 -0.107061
2005-08-23 07:42:13 51°21.214 3°3.558 -999 4.172651 30.828208 -0.107061
2005-08-23 07:42:18 51°21.22 3°3.583 -999 4.172547 30.827939 -0.107061
2005-08-23 07:42:22 51°21.225 3°3.601 -999 4.172444 30.827671 -0.107061
2005-08-23 07:42:27 51°21.23 3°3.625 -999 4.172444 30.827671 -0.107061
2005-08-23 07:42:32 51°21.237 3°3.646 -999 4.172651 30.829966 -0.14077
2005-08-23 07:42:35 51°21.239 3°3.661 -999 4.172755 30.831406 -0.14077
2005-08-23 07:42:43 51°21.25 3°3.693 -999 4.172755 30.831406 -0.14077
2005-08-23 07:42:48 51°21.253 3°3.72 -999 4.172651 30.830552 -0.14077
2005-08-23 07:42:52 51°21.26 3°3.734 -999 4.172651 30.830552 -0.14077
2005-08-23 07:42:58 51°21.265 3°3.764 -999 4.172547 30.829111 -0.14077
2005-08-23 07:43:03 51°21.272 3°3.783 -999 4.172755 30.830234 -0.14077
2005-08-23 07:43:07 51°21.276 3°3.804 -999 4.172858 30.830502 -0.107061
2005-08-23 07:43:12 51°21.282 3°3.827 -999 4.172858 30.830502 -0.107061
2005-08-23 07:43:17 51°21.288 3°3.849 -999 4.173273 30.833334 -0.14077
2005-08-23 07:43:23 51°21.295 3°3.873 -999 4.173169 30.831308 -0.14077
2005-08-23 07:43:28 51°21.3 3°3.897 -999 4.173377 30.833016 -0.14077
2005-08-23 07:43:33 51°21.306 3°3.918 -999 4.173273 30.831576 -0.14077
2005-08-23 07:43:38 51°21.312 3°3.944 -999 4.17348 30.832699 -0.14077
2005-08-23 07:43:43 51°21.318 3°3.963 -999 4.17348 30.832699 -0.14077
2005-08-23 07:43:47 51°21.322 3°3.984 -999 4.173273 30.83099 -0.14077
2005-08-23 07:43:53 51°21.33 3°4.009 -999 4.173066 30.828696 -0.14077
2005-08-23 07:43:58 51°21.335 3°4.031 -999 4.173584 30.833553 -0.14077
2005-08-23 07:44:03 51°21.34 3°4.054 -999 4.173377 30.832431 -0.14077
2005-08-23 07:44:08 51°21.347 3°4.079 -999 4.173481 30.834457 -0.14077
2005-08-23 07:44:12 51°21.349 3°4.096 -999 4.173481 30.834457 -0.14077
2005-08-23 07:44:18 51°21.358 3°4.123 -999 4.173584 30.836483 -0.14077
2005-08-23 07:44:23 51°21.362 3°4.144 -999 4.172962 30.832529 -0.107061
2005-08-23 07:44:28 51°21.367 3°4.167 -999 4.172858 30.832846 -0.14077
2005-08-23 07:44:33 51°21.374 3°4.19 -999 4.172962 30.834873 -0.14077
2005-08-23 07:44:38 51°21.38 3°4.214 -999 4.172755 30.834922 -0.107061
2005-08-23 07:44:43 51°21.384 3°4.234 -999 4.172755 30.834922 -0.107061
2005-08-23 07:44:47 51°21.389 3°4.252 -999 4.17317 30.838927 -0.107061
2005-08-23 07:44:53 51°21.396 3°4.28 -999 4.172858 30.836363 -0.107061
2005-08-23 07:44:58 51°21.403 3°4.305 -999 4.172651 30.83524 -0.107061
2005-08-23 07:45:03 51°21.409 3°4.324 -999 4.173273 30.839195 -0.107061
2005-08-23 07:45:08 51°21.413 3°4.348 -999 4.173688 30.842027 -0.073352
2005-08-23 07:45:13 51°21.42 3°4.371 -999 4.173688 30.842027 -0.073352
2005-08-23 07:45:18 51°21.426 3°4.394 -999 4.17431 30.845395 -0.039642
2005-08-23 07:45:23 51°21.431 3°4.415 -999 4.174414 30.845077 -0.039642
2005-08-23 07:45:28 51°21.437 3°4.438 -999 4.175036 30.848445 -0.005933
2005-08-23 07:45:33 51°21.443 3°4.461 -999 4.175347 30.849836 -0.005933
2005-08-23 07:45:38 51°21.45 3°4.484 -999 4.175554 30.850958 -0.005933
2005-08-23 07:45:43 51°21.454 3°4.505 -999 4.175554 30.850958 -0.005933
2005-08-23 07:45:47 51°21.458 3°4.522 -999 4.175347 30.84925 -0.005933
2005-08-23 07:45:51 51°21.463 3°4.541 -999 4.175762 30.853254 -0.005933
2005-08-23 07:45:58 51°21.47 3°4.575 -999 4.175451 30.851277 -0.005933
2005-08-23 07:46:03 51°21.476 3°4.595 -999 4.175554 30.853304 -0.005933
2005-08-23 07:46:07 51°21.48 3°4.614 -999 4.17514 30.850472 -0.005933
2005-08-23 07:46:13 51°21.487 3°4.641 -999 4.17514 30.850472 -0.005933
2005-08-23 07:46:18 51°21.493 3°4.664 -999 4.175243 30.8525 -0.005933
2005-08-23 07:46:23 51°21.498 3°4.686 -999 4.174932 30.851695 0.027777
2005-08-23 07:46:28 51°21.504 3°4.708 -999 4.174829 30.851427 0.027777
2005-08-23 07:46:33 51°21.51 3°4.731 -999 4.174414 30.849182 0.027777
2005-08-23 07:46:38 51°21.517 3°4.755 -999 4.174621 30.851477 0.027777
2005-08-23 07:46:43 51°21.521 3°4.777 -999 4.174621 30.851477 0.027777
2005-08-23 07:46:48 51°21.528 3°4.799 -999 4.174829 30.853187 0.027777
2005-08-23 07:46:53 51°21.534 3°4.821 -999 4.174725 30.852332 0.027777
2005-08-23 07:46:58 51°21.54 3°4.846 -999 4.174932 30.853455 0.027777
2005-08-23 07:47:03 51°21.544 3°4.867 -999 4.174621 30.850891 0.027777
2005-08-23 07:47:07 51°21.549 3°4.884 -999 4.174932 30.852868 -0.005933
2005-08-23 07:47:11 51°21.555 3°4.904 -999 4.174932 30.852868 -0.005933
2005-08-23 07:47:18 51°21.563 3°4.936 -999 4.174829 30.8526 0.027777
2005-08-23 07:47:23 51°21.568 3°4.957 -999 4.175243 30.856019 -0.005933
2005-08-23 07:47:27 51°21.574 3°4.977 -999 4.17514 30.856337 -0.005933
2005-08-23 07:47:32 51°21.58 3°4.999 -999 4.17431 30.850673 -0.005933
2005-08-23 07:47:38 51°21.587 3°5.025 -999 4.174621 30.854997 -0.039642
2005-08-23 07:47:43 51°21.592 3°5.046 -999 4.174621 30.854997 -0.039642
2005-08-23 07:47:47 51°21.598 3°5.067 -999 4.173896 30.850187 -0.039642
2005-08-23 07:47:52 51°21.604 3°5.089 -999 4.173896 30.851947 -0.039642
2005-08-23 07:47:56 51°21.609 3°5.107 -999 4.173273 30.848578 -0.039642
2005-08-23 07:48:03 51°21.617 3°5.136 -999 4.172962 30.847773 -0.039642
2005-08-23 07:48:07 51°21.621 3°5.155 -999 4.172859 30.848092 -0.073352
2005-08-23 07:48:11 51°21.627 3°5.175 -999 4.172859 30.848092 -0.073352
2005-08-23 07:48:16 51°21.632 3°5.198 -999 4.172237 30.844722 -0.039642
2005-08-23 07:48:23 51°21.639 3°5.227 -999 4.172029 30.844773 -0.073352
2005-08-23 07:48:27 51°21.644 3°5.248 -999 4.172133 30.846801 -0.073352
2005-08-23 07:48:33 51°21.65 3°5.274 -999 4.171407 30.842576 -0.039642
2005-08-23 07:48:38 51°21.656 3°5.298 -999 4.170992 30.840916 -0.039642
2005-08-23 07:48:43 51°21.661 3°5.319 -999 4.170992 30.840916 -0.039642
2005-08-23 07:48:47 51°21.667 3°5.339 -999 4.170785 30.839793 -0.073352
2005-08-23 07:48:51 51°21.67 3°5.358 -999 4.169748 30.831243 -0.107061
2005-08-23 07:48:58 51°21.68 3°5.388 -999 4.169022 30.824671 -0.14077
2005-08-23 07:49:03 51°21.683 3°5.41 -999 4.167467 30.810675 -0.17448
2005-08-23 07:49:08 51°21.69 3°5.432 -999 4.163319 30.775897 -0.241899
2005-08-23 07:49:12 51°21.694 3°5.453 -999 4.163319 30.775897 -0.241899
2005-08-23 07:49:18 51°21.698 3°5.478 -999 4.160001 30.747378 -0.241899
2005-08-23 07:49:23 51°21.705 3°5.5 -999 4.157927 30.729118 -0.241899
2005-08-23 07:49:28 51°21.71 3°5.526 -999 4.156683 30.716528 -0.17448
2005-08-23 07:49:33 51°21.717 3°5.546 -999 4.156786 30.715046 -0.073352
2005-08-23 07:49:38 51°21.721 3°5.569 -999 4.158134 30.723815 0.027777
2005-08-23 07:49:43 51°21.727 3°5.591 -999 4.158134 30.723815 0.027777
2005-08-23 07:49:48 51°21.732 3°5.615 -999 4.159482 30.733168 0.196324
2005-08-23 07:49:52 51°21.736 3°5.636 -999 4.160415 30.739103 0.331161
2005-08-23 07:49:58 51°21.742 3°5.663 -999 4.161763 30.74904 0.39858
2005-08-23 07:50:03 51°21.746 3°5.684 -999 4.1628 30.757582 0.432289
2005-08-23 07:50:08 51°21.75 3°5.709 -999 4.164148 30.768104 0.465999
2005-08-23 07:50:13 51°21.757 3°5.731 -999 4.164148 30.768104 0.465999
2005-08-23 07:50:18 51°21.759 3°5.758 -999 4.164978 30.774353 0.533418
2005-08-23 07:50:23 51°21.765 3°5.779 -999 4.1656 30.77948 0.600836
2005-08-23 07:50:27 51°21.767 3°5.8 -999 4.166533 30.786584 0.769383
2005-08-23 07:50:33 51°21.773 3°5.826 -999 4.167466 30.793688 0.870512
2005-08-23 07:50:38 51°21.778 3°5.85 -999 4.168192 30.799083 1.039059
2005-08-23 07:50:43 51°21.783 3°5.873 -999 4.168192 30.799083 1.039059
2005-08-23 07:50:48 51°21.786 3°5.897 -999 4.168711 30.80277 1.173896
2005-08-23 07:50:51 51°21.79 3°5.913 -999 4.169229 30.805871 1.308734
2005-08-23 07:50:58 51°21.794 3°5.947 -999 4.169748 30.810143 1.443571
2005-08-23 07:51:03 51°21.798 3°5.969 -999 4.170681 30.817247 1.51099
2005-08-23 07:51:07 51°21.8 3°5.99 -999 4.17151 30.822911 1.5447
2005-08-23 07:51:13 51°21.807 3°6.017 -999 4.17151 30.822911 1.5447
2005-08-23 07:51:18 51°21.809 3°6.04 -999 4.172029 30.826597 1.612118
2005-08-23 07:51:23 51°21.814 3°6.063 -999 4.172547 30.829697 1.780665
2005-08-23 07:51:28 51°21.818 3°6.087 -999 4.172651 30.829966 1.848084
2005-08-23 07:51:33 51°21.822 3°6.11 -999 4.172858 30.831088 1.848084
2005-08-23 07:51:37 51°21.826 3°6.13 -999 4.173688 30.837338 1.713247
2005-08-23 07:51:42 51°21.832 3°6.152 -999 4.173688 30.837338 1.713247
2005-08-23 07:51:48 51°21.836 3°6.179 -999 4.173688 30.836752 1.645828
2005-08-23 07:51:52 51°21.841 3°6.199 -999 4.174414 30.842732 1.612118
2005-08-23 07:51:55 51°21.843 3°6.21 -999 4.174206 30.840437 1.612118
2005-08-23 07:52:03 51°21.849 3°6.246 -999 4.173688 30.83558 1.612118
2005-08-23 07:52:07 51°21.853 3°6.266 -999 4.173688 30.834408 1.51099
2005-08-23 07:52:11 51°21.855 3°6.283 -999 4.173688 30.834408 1.51099
2005-08-23 07:52:16 51°21.859 3°6.309 -999 4.173273 30.83099 1.409862
2005-08-23 07:52:23 51°21.864 3°6.339 -999 4.173584 30.832967 1.308734
2005-08-23 07:52:28 51°21.867 3°6.363 -999 4.173273 30.829819 1.275024
2005-08-23 07:52:32 51°21.871 3°6.383 -999 4.173273 30.829233 1.275024
2005-08-23 07:52:37 51°21.874 3°6.407 -999 4.173377 30.829501 1.376153
2005-08-23 07:52:43 51°21.879 3°6.432 -999 4.173377 30.829501 1.376153
2005-08-23 07:52:47 51°21.88 3°6.451 -999 4.173066 30.826939 1.409862
2005-08-23 07:52:53 51°21.883 3°6.48 -999 4.172858 30.824644 1.308734
2005-08-23 07:52:58 51°21.885 3°6.502 -999 4.172651 30.82235 1.072768
2005-08-23 07:53:03 51°21.887 3°6.528 -999 4.172443 30.821228 0.870512
2005-08-23 07:53:08 51°21.888 3°6.551 -999 4.171821 30.815517 0.668255
2005-08-23 07:53:12 51°21.891 3°6.571 -999 4.171821 30.815517 0.668255
2005-08-23 07:53:18 51°21.893 3°6.599 -999 4.170888 30.80783 0.499708
2005-08-23 07:53:23 51°21.894 3°6.621 -999 4.170992 30.808684 0.39858
2005-08-23 07:53:27 51°21.895 3°6.64 -999 4.17037 30.802974 0.331161
2005-08-23 07:53:33 51°21.897 3°6.671 -999 4.171303 30.810075 0.331161
2005-08-23 07:53:38 51°21.898 3°6.694 -999 4.171614 30.812638 0.297452
2005-08-23 07:53:43 51°21.899 3°6.715 -999 4.171614 30.812638 0.297452
2005-08-23 07:53:47 51°21.9 3°6.734 -999 4.173895 30.830843 0.230033
2005-08-23 07:53:53 51°21.901 3°6.763 -999 4.174932 30.838799 0.230033
2005-08-23 07:53:58 51°21.903 3°6.789 -999 4.175762 30.844461 0.230033
2005-08-23 07:54:03 51°21.905 3°6.808 -999 4.177006 30.852953 0.196324
2005-08-23 07:54:07 51°21.905 3°6.829 -999 4.178976 30.868597 0.162614
2005-08-23 07:54:11 51°21.909 3°6.846 -999 4.178976 30.868597 0.162614
2005-08-23 07:54:18 51°21.911 3°6.88 -999 4.179598 30.873723 0.128905
2005-08-23 07:54:23 51°21.917 3°6.901 -999 4.182087 30.894226 0.061486
2005-08-23 07:54:28 51°21.918 3°6.926 -999 4.18105 30.885683 -0.005933
2005-08-23 07:54:33 51°21.925 3°6.947 -999 4.18188 30.893691 -0.039642
2005-08-23 07:54:37 51°21.927 3°6.967 -999 4.181361 30.889419 -0.073352
2005-08-23 07:54:43 51°21.931 3°6.992 -999 4.181361 30.889419 -0.073352
2005-08-23 07:54:47 51°21.934 3°7.013 -999 4.182191 30.896841 -0.107061
2005-08-23 07:54:53 51°21.936 3°7.038 -999 4.181361 30.890006 -0.14077
2005-08-23 07:54:58 51°21.938 3°7.061 -999 4.181258 30.889739 -0.17448
2005-08-23 07:55:03 51°21.942 3°7.086 -999 4.180532 30.883171 -0.208189
2005-08-23 07:55:08 51°21.943 3°7.108 -999 4.180221 30.881195 -0.241899
2005-08-23 07:55:13 51°21.946 3°7.131 -999 4.180221 30.881195 -0.241899
2005-08-23 07:55:17 51°21.948 3°7.152 -999 4.179495 30.875801 -0.275608
2005-08-23 07:55:23 51°21.951 3°7.18 -999 4.179184 30.873238 -0.309317
2005-08-23 07:55:27 51°21.953 3°7.198 -999 4.178354 30.867576 -0.309317
2005-08-23 07:55:33 51°21.955 3°7.225 -999 4.176488 30.852785 -0.376736
2005-08-23 07:55:38 51°21.959 3°7.25 -999 4.175969 30.849686 -0.376736